Sac River (Missouri), Caplinger Mills (06919900)

StateMissouriLatestLow (776 cfs)
RiverSac RiverRatingObservedEstimated
Updated2026-05-10 10:45 (1 hour ago)Flood - The river is flooding. Obstacles can be treacherous or deadly. The river should be avoided at this stage for casual trips and definitely for the inexperienced. Trips should be attempted only with protective gear and equipment.Flood(none)6741
Discharge776 cfs (median: 2580 cfs)High - The river is high and potentially dangerous, especially for the young and / or inexperienced. Normal stream obstacles are sometimes difficult to navigate. Extended distances can be attempted, but canoe travel may not be advisable.High(none)2350
Height7.24 feetGood - Conditions are ideal for a canoe or kayak. Boats typically will drag on fewer than one-quarter of riffles, if at all, and portages are unnecessary or rare. Normal float lengths can be attempted without a problem.Good(none)1695
TrendFalling (falling over 24 hours)Low - River is low but can still be floated. Some riffles are okay but most come with significant dragging and might need a portage. Float lengths should be reduced to accommodate low flow, dragging, and portages.Low601275
USGSExternal icon USGS Site (External icon Duck Duck Go Maps)Poor - River is too low to float comfortably. Most or all riffles will drag or must be portaged and some obstacles (such as slick shelf rock) cause undue problems. Avoid the river at this stage for casual paddling trips.Poor(none)75

Trending Data

Plot Image

Trips for Sac River (Missouri), Caplinger Mills (06919900)

DateStartEndDistanceConditionDischargeHeightFishingDetails
Click for details2014-08-17 Caplinger Mills Rt N Total trip distance: 0.7 miles0.7 Low 45 4.76 Poor NoneNone Bowe, Michelle
Edmond, Brian
Edmond, Julian
Bowe, Michelle; Edmond, Brian; Edmond, Julian
Water level and flow was very low. However, much of the distance was a pool or had sufficient flow to carry the canoe. The boat ramp at Caplinger Mills was primitive and difficult to use with just a 2WD van.Water level and flow was very low. However, much of the distance was a pool or had sufficient flow to carry the canoe. The boat ramp at Caplinger Mills was primitive and difficult to use with just a 2WD van. USGS Gauge Data:
Caplinger Mills (06919900)
Discharge: 45
Height: 4.76
<b>USGS Gauge Data:</b></br />Caplinger Mills (06919900)<br />Discharge: 45<br />Height: 4.76
Source: EdmondSource: Edmond

A total of 1 rows are displayed.

Trip Summary for Sac River (Missouri), Caplinger Mills (06919900)

Miles0.7
Trips1
People3
Dates1
Years1
Months1
Rows1
Sources1

Condition Descriptions

Fishing Conditions

Fish Species

Notes

Classic Trip List

The classic River Trips application is still available for use. It is updated with the new system using a data retrofit. It is no longer maintained. The original River Trips application is no longer updated (as of 1 Dec 2016) but can be checked for errors or for the condition of the data before it was converted to the new system.

Gauge Data Table

ObservationHeightDischargeMaximum
Discharge
Minimum
Discharge
Mean
Discharge
P05P10P20P25P50
(Median)
P75P80P90P95
2026-05-10 10:45 7.24 776 12300 (2002) 80 (1981) 3070 191 283 477 676 2580 4200 5120 7230 9340
2026-05-10 09:45 7.46 886 12300 (2002) 80 (1981) 3070 191 283 477 676 2580 4200 5120 7230 9340
2026-05-10 08:45 7.70 1010 12300 (2002) 80 (1981) 3070 191 283 477 676 2580 4200 5120 7230 9340
2026-05-10 07:45 7.99 1180 12300 (2002) 80 (1981) 3070 191 283 477 676 2580 4200 5120 7230 9340
2026-05-10 06:45 8.32 1390 12300 (2002) 80 (1981) 3070 191 283 477 676 2580 4200 5120 7230 9340
2026-05-10 05:45 8.67 1600 12300 (2002) 80 (1981) 3070 191 283 477 676 2580 4200 5120 7230 9340
2026-05-10 04:45 9.00 1810 12300 (2002) 80 (1981) 3070 191 283 477 676 2580 4200 5120 7230 9340
2026-05-10 03:45 9.30 2010 12300 (2002) 80 (1981) 3070 191 283 477 676 2580 4200 5120 7230 9340
2026-05-10 02:45 9.51 2160 12300 (2002) 80 (1981) 3070 191 283 477 676 2580 4200 5120 7230 9340
2026-05-10 01:45 9.56 2190 12300 (2002) 80 (1981) 3070 191 283 477 676 2580 4200 5120 7230 9340
2026-05-10 00:45 9.36 2050 12300 (2002) 80 (1981) 3070 191 283 477 676 2580 4200 5120 7230 9340
2026-05-09 23:45 8.76 1660 12300 (2002) 80 (1981) 3070 191 283 477 676 2580 4200 5120 7230 9340
2026-05-09 22:45 7.52 917 21000 (2009) 80 (1981) 3660 176 231 560 903 2420 4390 5350 8130 15100
2026-05-09 21:45 6.37 405 21000 (2009) 80 (1981) 3660 176 231 560 903 2420 4390 5350 8130 15100
2026-05-09 20:45 6.37 405 21000 (2009) 80 (1981) 3660 176 231 560 903 2420 4390 5350 8130 15100
2026-05-09 19:45 6.45 435 21000 (2009) 80 (1981) 3660 176 231 560 903 2420 4390 5350 8130 15100
2026-05-09 18:45 6.53 466 21000 (2009) 80 (1981) 3660 176 231 560 903 2420 4390 5350 8130 15100
2026-05-09 17:45 6.62 501 21000 (2009) 80 (1981) 3660 176 231 560 903 2420 4390 5350 8130 15100
2026-05-09 16:45 6.71 538 21000 (2009) 80 (1981) 3660 176 231 560 903 2420 4390 5350 8130 15100
2026-05-09 15:45 6.81 580 21000 (2009) 80 (1981) 3660 176 231 560 903 2420 4390 5350 8130 15100
2026-05-09 14:45 6.91 623 21000 (2009) 80 (1981) 3660 176 231 560 903 2420 4390 5350 8130 15100
2026-05-09 13:45 7.02 673 21000 (2009) 80 (1981) 3660 176 231 560 903 2420 4390 5350 8130 15100
2026-05-09 12:45 7.14 728 21000 (2009) 80 (1981) 3660 176 231 560 903 2420 4390 5350 8130 15100
2026-05-09 11:45 7.29 800 21000 (2009) 80 (1981) 3660 176 231 560 903 2420 4390 5350 8130 15100
2026-05-09 10:45 7.46 886 21000 (2009) 80 (1981) 3660 176 231 560 903 2420 4390 5350 8130 15100
2026-05-09 09:45 7.65 986 21000 (2009) 80 (1981) 3660 176 231 560 903 2420 4390 5350 8130 15100
2026-05-09 08:45 7.83 1090 21000 (2009) 80 (1981) 3660 176 231 560 903 2420 4390 5350 8130 15100
2026-05-09 07:45 8.00 1190 21000 (2009) 80 (1981) 3660 176 231 560 903 2420 4390 5350 8130 15100
2026-05-09 06:45 8.12 1260 21000 (2009) 80 (1981) 3660 176 231 560 903 2420 4390 5350 8130 15100
2026-05-09 05:45 8.15 1280 21000 (2009) 80 (1981) 3660 176 231 560 903 2420 4390 5350 8130 15100
2026-05-09 04:45 8.00 1190 21000 (2009) 80 (1981) 3660 176 231 560 903 2420 4390 5350 8130 15100
2026-05-09 03:45 7.61 964 21000 (2009) 80 (1981) 3660 176 231 560 903 2420 4390 5350 8130 15100
2026-05-09 02:45 6.91 623 21000 (2009) 80 (1981) 3660 176 231 560 903 2420 4390 5350 8130 15100
2026-05-09 01:45 6.32 387 21000 (2009) 80 (1981) 3660 176 231 560 903 2420 4390 5350 8130 15100
2026-05-09 00:45 6.27 369 21000 (2009) 80 (1981) 3660 176 231 560 903 2420 4390 5350 8130 15100
2026-05-08 23:45 6.31 384 21000 (2009) 80 (1981) 3660 176 231 560 903 2420 4390 5350 8130 15100
2026-05-08 22:45 6.37 405 17400 (2002) 80 (1981) 3670 133 164 485 817 2780 4880 5640 9890 13100
2026-05-08 21:45 6.44 431 17400 (2002) 80 (1981) 3670 133 164 485 817 2780 4880 5640 9890 13100
2026-05-08 20:45 6.50 454 17400 (2002) 80 (1981) 3670 133 164 485 817 2780 4880 5640 9890 13100
2026-05-08 19:45 6.54 469 17400 (2002) 80 (1981) 3670 133 164 485 817 2780 4880 5640 9890 13100
2026-05-08 18:45 6.63 505 17400 (2002) 80 (1981) 3670 133 164 485 817 2780 4880 5640 9890 13100
2026-05-08 17:45 6.75 554 17400 (2002) 80 (1981) 3670 133 164 485 817 2780 4880 5640 9890 13100
2026-05-08 16:45 6.88 610 17400 (2002) 80 (1981) 3670 133 164 485 817 2780 4880 5640 9890 13100
2026-05-08 15:45 7.02 673 17400 (2002) 80 (1981) 3670 133 164 485 817 2780 4880 5640 9890 13100
2026-05-08 14:45 7.20 757 17400 (2002) 80 (1981) 3670 133 164 485 817 2780 4880 5640 9890 13100
2026-05-08 13:45 7.40 855 17400 (2002) 80 (1981) 3670 133 164 485 817 2780 4880 5640 9890 13100
2026-05-08 12:45 7.66 991 17400 (2002) 80 (1981) 3670 133 164 485 817 2780 4880 5640 9890 13100
2026-05-08 11:45 7.96 1160 17400 (2002) 80 (1981) 3670 133 164 485 817 2780 4880 5640 9890 13100
2026-05-08 10:45 8.32 1390 17400 (2002) 80 (1981) 3670 133 164 485 817 2780 4880 5640 9890 13100
2026-05-08 09:45 8.73 1640 17400 (2002) 80 (1981) 3670 133 164 485 817 2780 4880 5640 9890 13100
2026-05-08 08:45 9.18 1930 17400 (2002) 80 (1981) 3670 133 164 485 817 2780 4880 5640 9890 13100
2026-05-08 07:45 9.63 2240 17400 (2002) 80 (1981) 3670 133 164 485 817 2780 4880 5640 9890 13100
2026-05-08 06:45 10.09 2580 17400 (2002) 80 (1981) 3670 133 164 485 817 2780 4880 5640 9890 13100
2026-05-08 05:45 10.48 2880 17400 (2002) 80 (1981) 3670 133 164 485 817 2780 4880 5640 9890 13100
2026-05-08 04:45 10.78 3120 17400 (2002) 80 (1981) 3670 133 164 485 817 2780 4880 5640 9890 13100
2026-05-08 03:45 10.89 3210 17400 (2002) 80 (1981) 3670 133 164 485 817 2780 4880 5640 9890 13100
2026-05-08 02:45 10.70 3060 17400 (2002) 80 (1981) 3670 133 164 485 817 2780 4880 5640 9890 13100
2026-05-08 01:45 10.10 2590 17400 (2002) 80 (1981) 3670 133 164 485 817 2780 4880 5640 9890 13100
2026-05-08 00:45 8.95 1780 17400 (2002) 80 (1981) 3670 133 164 485 817 2780 4880 5640 9890 13100
2026-05-07 23:45 7.12 719 17400 (2002) 80 (1981) 3670 133 164 485 817 2780 4880 5640 9890 13100
2026-05-07 22:45 6.27 369 16000 (1994) 80 (1981) 3190 133 160 511 761 3000 4090 4970 5660 10200
2026-05-07 21:45 6.33 391 16000 (1994) 80 (1981) 3190 133 160 511 761 3000 4090 4970 5660 10200
2026-05-07 20:45 6.40 416 16000 (1994) 80 (1981) 3190 133 160 511 761 3000 4090 4970 5660 10200
2026-05-07 19:45 6.49 450 16000 (1994) 80 (1981) 3190 133 160 511 761 3000 4090 4970 5660 10200
2026-05-07 18:45 6.58 485 16000 (1994) 80 (1981) 3190 133 160 511 761 3000 4090 4970 5660 10200
2026-05-07 17:45 6.69 530 16000 (1994) 80 (1981) 3190 133 160 511 761 3000 4090 4970 5660 10200
2026-05-07 16:45 6.80 576 16000 (1994) 80 (1981) 3190 133 160 511 761 3000 4090 4970 5660 10200
2026-05-07 15:45 6.93 632 16000 (1994) 80 (1981) 3190 133 160 511 761 3000 4090 4970 5660 10200
2026-05-07 14:45 7.08 700 16000 (1994) 80 (1981) 3190 133 160 511 761 3000 4090 4970 5660 10200
2026-05-07 13:45 7.25 781 16000 (1994) 80 (1981) 3190 133 160 511 761 3000 4090 4970 5660 10200
2026-05-07 12:45 7.47 891 16000 (1994) 80 (1981) 3190 133 160 511 761 3000 4090 4970 5660 10200
2026-05-07 11:45 7.71 1020 16000 (1994) 80 (1981) 3190 133 160 511 761 3000 4090 4970 5660 10200
2026-05-07 10:45 7.99 1180 16000 (1994) 80 (1981) 3190 133 160 511 761 3000 4090 4970 5660 10200
2026-05-07 09:45 8.32 1390 16000 (1994) 80 (1981) 3190 133 160 511 761 3000 4090 4970 5660 10200
2026-05-07 08:45 8.66 1590 16000 (1994) 80 (1981) 3190 133 160 511 761 3000 4090 4970 5660 10200
2026-05-07 07:45 9.00 1810 16000 (1994) 80 (1981) 3190 133 160 511 761 3000 4090 4970 5660 10200
2026-05-07 06:45 9.30 2010 16000 (1994) 80 (1981) 3190 133 160 511 761 3000 4090 4970 5660 10200
2026-05-07 05:45 9.53 2170 16000 (1994) 80 (1981) 3190 133 160 511 761 3000 4090 4970 5660 10200
2026-05-07 04:45 9.58 2210 16000 (1994) 80 (1981) 3190 133 160 511 761 3000 4090 4970 5660 10200
2026-05-07 03:45 9.38 2070 16000 (1994) 80 (1981) 3190 133 160 511 761 3000 4090 4970 5660 10200
2026-05-07 02:45 8.77 1660 16000 (1994) 80 (1981) 3190 133 160 511 761 3000 4090 4970 5660 10200
2026-05-07 01:45 7.52 917 16000 (1994) 80 (1981) 3190 133 160 511 761 3000 4090 4970 5660 10200
2026-05-07 00:45 6.20 345 16000 (1994) 80 (1981) 3190 133 160 511 761 3000 4090 4970 5660 10200
2026-05-06 23:45 6.18 338 16000 (1994) 80 (1981) 3190 133 160 511 761 3000 4090 4970 5660 10200
2026-05-06 22:45 6.22 352 19100 (2022) 80 (1981) 2990 136 196 469 759 2610 3930 4320 5440 9800
2026-05-06 21:45 6.27 369 19100 (2022) 80 (1981) 2990 136 196 469 759 2610 3930 4320 5440 9800
2026-05-06 20:45 6.33 391 19100 (2022) 80 (1981) 2990 136 196 469 759 2610 3930 4320 5440 9800
2026-05-06 19:45 6.40 416 19100 (2022) 80 (1981) 2990 136 196 469 759 2610 3930 4320 5440 9800
2026-05-06 18:45 6.47 443 19100 (2022) 80 (1981) 2990 136 196 469 759 2610 3930 4320 5440 9800
2026-05-06 17:45 6.55 473 19100 (2022) 80 (1981) 2990 136 196 469 759 2610 3930 4320 5440 9800
2026-05-06 16:45 6.64 509 19100 (2022) 80 (1981) 2990 136 196 469 759 2610 3930 4320 5440 9800
2026-05-06 15:45 6.74 550 19100 (2022) 80 (1981) 2990 136 196 469 759 2610 3930 4320 5440 9800
2026-05-06 14:45 6.85 597 19100 (2022) 80 (1981) 2990 136 196 469 759 2610 3930 4320 5440 9800
2026-05-06 13:45 6.97 650 19100 (2022) 80 (1981) 2990 136 196 469 759 2610 3930 4320 5440 9800
2026-05-06 12:45 7.12 719 19100 (2022) 80 (1981) 2990 136 196 469 759 2610 3930 4320 5440 9800
2026-05-06 11:45 7.29 800 19100 (2022) 80 (1981) 2990 136 196 469 759 2610 3930 4320 5440 9800
2026-05-06 10:45 7.51 912 19100 (2022) 80 (1981) 2990 136 196 469 759 2610 3930 4320 5440 9800
2026-05-06 09:45 7.75 1040 19100 (2022) 80 (1981) 2990 136 196 469 759 2610 3930 4320 5440 9800
2026-05-06 08:45 8.04 1210 19100 (2022) 80 (1981) 2990 136 196 469 759 2610 3930 4320 5440 9800
2026-05-06 07:45 8.37 1410 19100 (2022) 80 (1981) 2990 136 196 469 759 2610 3930 4320 5440 9800
2026-05-06 06:45 8.71 1620 19100 (2022) 80 (1981) 2990 136 196 469 759 2610 3930 4320 5440 9800
2026-05-06 05:45 9.05 1840 19100 (2022) 80 (1981) 2990 136 196 469 759 2610 3930 4320 5440 9800
2026-05-06 04:45 9.35 2050 19100 (2022) 80 (1981) 2990 136 196 469 759 2610 3930 4320 5440 9800
2026-05-06 03:45 9.57 2200 19100 (2022) 80 (1981) 2990 136 196 469 759 2610 3930 4320 5440 9800
2026-05-06 02:45 9.64 2250 19100 (2022) 80 (1981) 2990 136 196 469 759 2610 3930 4320 5440 9800
2026-05-06 01:45 9.46 2120 19100 (2022) 80 (1981) 2990 136 196 469 759 2610 3930 4320 5440 9800
2026-05-06 00:45 8.90 1750 19100 (2022) 80 (1981) 2990 136 196 469 759 2610 3930 4320 5440 9800
2026-05-05 23:45 7.73 1030 19100 (2022) 80 (1981) 2990 136 196 469 759 2610 3930 4320 5440 9800
2026-05-05 22:45 6.54 469 17000 (1999) 85 (1981) 2940 114 165 521 767 2220 3680 4110 5600 12700
2026-05-05 21:45 6.47 443 17000 (1999) 85 (1981) 2940 114 165 521 767 2220 3680 4110 5600 12700
2026-05-05 20:45 6.54 469 17000 (1999) 85 (1981) 2940 114 165 521 767 2220 3680 4110 5600 12700
2026-05-05 19:45 6.63 505 17000 (1999) 85 (1981) 2940 114 165 521 767 2220 3680 4110 5600 12700
2026-05-05 18:45 6.72 542 17000 (1999) 85 (1981) 2940 114 165 521 767 2220 3680 4110 5600 12700
2026-05-05 17:45 6.83 588 17000 (1999) 85 (1981) 2940 114 165 521 767 2220 3680 4110 5600 12700
2026-05-05 16:45 6.96 645 17000 (1999) 85 (1981) 2940 114 165 521 767 2220 3680 4110 5600 12700
2026-05-05 15:45 7.11 714 17000 (1999) 85 (1981) 2940 114 165 521 767 2220 3680 4110 5600 12700
2026-05-05 14:45 7.28 796 17000 (1999) 85 (1981) 2940 114 165 521 767 2220 3680 4110 5600 12700
2026-05-05 13:45 7.49 901 17000 (1999) 85 (1981) 2940 114 165 521 767 2220 3680 4110 5600 12700
2026-05-05 12:45 7.75 1040 17000 (1999) 85 (1981) 2940 114 165 521 767 2220 3680 4110 5600 12700
2026-05-05 11:45 8.07 1230 17000 (1999) 85 (1981) 2940 114 165 521 767 2220 3680 4110 5600 12700
2026-05-05 10:45 8.43 1450 17000 (1999) 85 (1981) 2940 114 165 521 767 2220 3680 4110 5600 12700
2026-05-05 09:45 8.86 1720 17000 (1999) 85 (1981) 2940 114 165 521 767 2220 3680 4110 5600 12700
2026-05-05 08:45 9.31 2020 17000 (1999) 85 (1981) 2940 114 165 521 767 2220 3680 4110 5600 12700
2026-05-05 07:45 9.79 2360 17000 (1999) 85 (1981) 2940 114 165 521 767 2220 3680 4110 5600 12700
2026-05-05 06:45 10.26 2710 17000 (1999) 85 (1981) 2940 114 165 521 767 2220 3680 4110 5600 12700
2026-05-05 05:45 10.68 3040 17000 (1999) 85 (1981) 2940 114 165 521 767 2220 3680 4110 5600 12700
2026-05-05 04:45 11.01 3310 17000 (1999) 85 (1981) 2940 114 165 521 767 2220 3680 4110 5600 12700
2026-05-05 03:45 11.17 3440 17000 (1999) 85 (1981) 2940 114 165 521 767 2220 3680 4110 5600 12700
2026-05-05 02:45 11.04 3340 17000 (1999) 85 (1981) 2940 114 165 521 767 2220 3680 4110 5600 12700
2026-05-05 01:45 10.53 2920 17000 (1999) 85 (1981) 2940 114 165 521 767 2220 3680 4110 5600 12700
2026-05-05 00:45 9.49 2140 17000 (1999) 85 (1981) 2940 114 165 521 767 2220 3680 4110 5600 12700
2026-05-04 23:45 7.70 1010 17000 (1999) 85 (1981) 2940 114 165 521 767 2220 3680 4110 5600 12700
2026-05-04 22:45 6.15 328 16000 (2017) 76 (1981) 2770 114 139 235 451 2240 3910 4370 5980 8970
2026-05-04 21:45 6.12 318 16000 (2017) 76 (1981) 2770 114 139 235 451 2240 3910 4370 5980 8970
2026-05-04 20:45 6.12 318 16000 (2017) 76 (1981) 2770 114 139 235 451 2240 3910 4370 5980 8970
2026-05-04 19:45 6.13 322 16000 (2017) 76 (1981) 2770 114 139 235 451 2240 3910 4370 5980 8970
2026-05-04 18:45 6.13 322 16000 (2017) 76 (1981) 2770 114 139 235 451 2240 3910 4370 5980 8970
2026-05-04 17:45 6.14 325 16000 (2017) 76 (1981) 2770 114 139 235 451 2240 3910 4370 5980 8970
2026-05-04 16:45 6.14 325 16000 (2017) 76 (1981) 2770 114 139 235 451 2240 3910 4370 5980 8970
2026-05-04 15:45 6.15 328 16000 (2017) 76 (1981) 2770 114 139 235 451 2240 3910 4370 5980 8970
2026-05-04 14:45 6.15 328 16000 (2017) 76 (1981) 2770 114 139 235 451 2240 3910 4370 5980 8970
2026-05-04 13:45 6.16 332 16000 (2017) 76 (1981) 2770 114 139 235 451 2240 3910 4370 5980 8970
2026-05-04 12:45 6.17 335 16000 (2017) 76 (1981) 2770 114 139 235 451 2240 3910 4370 5980 8970
2026-05-04 11:45 6.17 335 16000 (2017) 76 (1981) 2770 114 139 235 451 2240 3910 4370 5980 8970
2026-05-04 10:45 6.17 335 16000 (2017) 76 (1981) 2770 114 139 235 451 2240 3910 4370 5980 8970
2026-05-04 09:45 6.18 338 16000 (2017) 76 (1981) 2770 114 139 235 451 2240 3910 4370 5980 8970
2026-05-04 08:45 6.18 338 16000 (2017) 76 (1981) 2770 114 139 235 451 2240 3910 4370 5980 8970
2026-05-04 07:45 6.19 332 16000 (2017) 76 (1981) 2770 114 139 235 451 2240 3910 4370 5980 8970
2026-05-04 06:45 6.19 332 16000 (2017) 76 (1981) 2770 114 139 235 451 2240 3910 4370 5980 8970
2026-05-04 05:45 6.20 335 16000 (2017) 76 (1981) 2770 114 139 235 451 2240 3910 4370 5980 8970
2026-05-04 04:45 6.21 338 16000 (2017) 76 (1981) 2770 114 139 235 451 2240 3910 4370 5980 8970
2026-05-04 03:45 6.22 342 16000 (2017) 76 (1981) 2770 114 139 235 451 2240 3910 4370 5980 8970
2026-05-04 02:45 6.23 345 16000 (2017) 76 (1981) 2770 114 139 235 451 2240 3910 4370 5980 8970
2026-05-04 01:45 6.24 348 16000 (2017) 76 (1981) 2770 114 139 235 451 2240 3910 4370 5980 8970
2026-05-04 00:45 6.24 348 16000 (2017) 76 (1981) 2770 114 139 235 451 2240 3910 4370 5980 8970
2026-05-03 23:45 6.25 352 16000 (2017) 76 (1981) 2770 114 139 235 451 2240 3910 4370 5980 8970
2026-05-03 22:45 6.26 355 9790 (2019) 78 (1981) 2680 116 144 231 358 2350 3950 4930 5830 7600
2026-05-03 21:45 6.26 355 9790 (2019) 78 (1981) 2680 116 144 231 358 2350 3950 4930 5830 7600
2026-05-03 20:45 6.27 359 9790 (2019) 78 (1981) 2680 116 144 231 358 2350 3950 4930 5830 7600
2026-05-03 19:45 6.27 359 9790 (2019) 78 (1981) 2680 116 144 231 358 2350 3950 4930 5830 7600
2026-05-03 18:45 6.28 362 9790 (2019) 78 (1981) 2680 116 144 231 358 2350 3950 4930 5830 7600
2026-05-03 17:45 6.29 366 9790 (2019) 78 (1981) 2680 116 144 231 358 2350 3950 4930 5830 7600
2026-05-03 16:45 6.29 366 9790 (2019) 78 (1981) 2680 116 144 231 358 2350 3950 4930 5830 7600
2026-05-03 15:45 6.31 373 9790 (2019) 78 (1981) 2680 116 144 231 358 2350 3950 4930 5830 7600
2026-05-03 14:45 6.31 373 9790 (2019) 78 (1981) 2680 116 144 231 358 2350 3950 4930 5830 7600
2026-05-03 13:45 6.32 376 9790 (2019) 78 (1981) 2680 116 144 231 358 2350 3950 4930 5830 7600
2026-05-03 12:45 6.33 380 9790 (2019) 78 (1981) 2680 116 144 231 358 2350 3950 4930 5830 7600
2026-05-03 11:45 6.35 387 9790 (2019) 78 (1981) 2680 116 144 231 358 2350 3950 4930 5830 7600
2026-05-03 10:45 6.35 387 9790 (2019) 78 (1981) 2680 116 144 231 358 2350 3950 4930 5830 7600
2026-05-03 09:45 6.36 391 9790 (2019) 78 (1981) 2680 116 144 231 358 2350 3950 4930 5830 7600
2026-05-03 08:45 6.37 394 9790 (2019) 78 (1981) 2680 116 144 231 358 2350 3950 4930 5830 7600
2026-05-03 07:45 6.39 402 9790 (2019) 78 (1981) 2680 116 144 231 358 2350 3950 4930 5830 7600
2026-05-03 06:45 6.40 405 9790 (2019) 78 (1981) 2680 116 144 231 358 2350 3950 4930 5830 7600
2026-05-03 05:45 6.42 413 9790 (2019) 78 (1981) 2680 116 144 231 358 2350 3950 4930 5830 7600
2026-05-03 04:45 6.44 420 9790 (2019) 78 (1981) 2680 116 144 231 358 2350 3950 4930 5830 7600
2026-05-03 03:45 6.46 427 9790 (2019) 78 (1981) 2680 116 144 231 358 2350 3950 4930 5830 7600
2026-05-03 02:45 6.49 439 9790 (2019) 78 (1981) 2680 116 144 231 358 2350 3950 4930 5830 7600
2026-05-03 01:45 6.51 446 9790 (2019) 78 (1981) 2680 116 144 231 358 2350 3950 4930 5830 7600
2026-05-03 00:45 6.55 462 9790 (2019) 78 (1981) 2680 116 144 231 358 2350 3950 4930 5830 7600
2026-05-02 23:45 6.58 473 9790 (2019) 78 (1981) 2680 116 144 231 358 2350 3950 4930 5830 7600
2026-05-02 22:45 6.63 493 20200 (2019) 89 (1981) 3220 115 171 258 357 2310 3890 5280 7590 11100
2026-05-02 21:45 6.68 513 20200 (2019) 89 (1981) 3220 115 171 258 357 2310 3890 5280 7590 11100
2026-05-02 20:45 6.73 534 20200 (2019) 89 (1981) 3220 115 171 258 357 2310 3890 5280 7590 11100
2026-05-02 19:45 6.80 563 20200 (2019) 89 (1981) 3220 115 171 258 357 2310 3890 5280 7590 11100
2026-05-02 18:45 6.87 593 20200 (2019) 89 (1981) 3220 115 171 258 357 2310 3890 5280 7590 11100
2026-05-02 17:45 6.96 632 20200 (2019) 89 (1981) 3220 115 171 258 357 2310 3890 5280 7590 11100
2026-05-02 16:45 7.06 677 20200 (2019) 89 (1981) 3220 115 171 258 357 2310 3890 5280 7590 11100
2026-05-02 15:45 7.18 733 20200 (2019) 89 (1981) 3220 115 171 258 357 2310 3890 5280 7590 11100
2026-05-02 14:45 7.32 800 20200 (2019) 89 (1981) 3220 115 171 258 357 2310 3890 5280 7590 11100
2026-05-02 13:45 7.49 886 20200 (2019) 89 (1981) 3220 115 171 258 357 2310 3890 5280 7590 11100
2026-05-02 12:45 7.69 992 20200 (2019) 89 (1981) 3220 115 171 258 357 2310 3890 5280 7590 11100
2026-05-02 11:45 7.94 1140 20200 (2019) 89 (1981) 3220 115 171 258 357 2310 3890 5280 7590 11100
2026-05-02 10:45 8.23 1320 20200 (2019) 89 (1981) 3220 115 171 258 357 2310 3890 5280 7590 11100
2026-05-02 09:45 8.55 1510 20200 (2019) 89 (1981) 3220 115 171 258 357 2310 3890 5280 7590 11100
2026-05-02 08:45 8.89 1720 20200 (2019) 89 (1981) 3220 115 171 258 357 2310 3890 5280 7590 11100
2026-05-02 07:45 9.23 1950 20200 (2019) 89 (1981) 3220 115 171 258 357 2310 3890 5280 7590 11100
2026-05-02 06:45 9.53 2160 20200 (2019) 89 (1981) 3220 115 171 258 357 2310 3890 5280 7590 11100
2026-05-02 05:45 9.75 2320 20200 (2019) 89 (1981) 3220 115 171 258 357 2310 3890 5280 7590 11100
2026-05-02 04:45 9.81 2360 20200 (2019) 89 (1981) 3220 115 171 258 357 2310 3890 5280 7590 11100
2026-05-02 03:45 9.65 2240 20200 (2019) 89 (1981) 3220 115 171 258 357 2310 3890 5280 7590 11100
2026-05-02 02:45 9.11 1870 20200 (2019) 89 (1981) 3220 115 171 258 357 2310 3890 5280 7590 11100
2026-05-02 01:45 8.01 1180 20200 (2019) 89 (1981) 3220 115 171 258 357 2310 3890 5280 7590 11100
2026-05-02 00:45 6.83 576 20200 (2019) 89 (1981) 3220 115 171 258 357 2310 3890 5280 7590 11100
2026-05-01 23:45 6.70 521 20200 (2019) 89 (1981) 3220 115 171 258 357 2310 3890 5280 7590 11100
2026-05-01 22:45 6.73 534 22000 (2019) 94 (1981) 3590 113 187 313 414 1930 4170 5450 8880 16200
2026-05-01 21:45 6.76 546 22000 (2019) 94 (1981) 3590 113 187 313 414 1930 4170 5450 8880 16200
2026-05-01 20:45 6.80 563 22000 (2019) 94 (1981) 3590 113 187 313 414 1930 4170 5450 8880 16200
2026-05-01 19:45 6.85 584 22000 (2019) 94 (1981) 3590 113 187 313 414 1930 4170 5450 8880 16200
2026-05-01 18:45 6.90 606 22000 (2019) 94 (1981) 3590 113 187 313 414 1930 4170 5450 8880 16200
2026-05-01 17:45 6.95 628 22000 (2019) 94 (1981) 3590 113 187 313 414 1930 4170 5450 8880 16200
2026-05-01 16:45 7.02 659 22000 (2019) 94 (1981) 3590 113 187 313 414 1930 4170 5450 8880 16200
2026-05-01 15:45 7.10 696 22000 (2019) 94 (1981) 3590 113 187 313 414 1930 4170 5450 8880 16200
2026-05-01 14:45 7.20 742 22000 (2019) 94 (1981) 3590 113 187 313 414 1930 4170 5450 8880 16200
2026-05-01 13:45 7.31 796 22000 (2019) 94 (1981) 3590 113 187 313 414 1930 4170 5450 8880 16200
2026-05-01 12:45 7.44 860 22000 (2019) 94 (1981) 3590 113 187 313 414 1930 4170 5450 8880 16200
2026-05-01 11:45 7.61 948 22000 (2019) 94 (1981) 3590 113 187 313 414 1930 4170 5450 8880 16200
2026-05-01 10:45 7.80 1050 22000 (2019) 94 (1981) 3590 113 187 313 414 1930 4170 5450 8880 16200
2026-05-01 09:45 8.02 1180 22000 (2019) 94 (1981) 3590 113 187 313 414 1930 4170 5450 8880 16200
2026-05-01 08:45 8.27 1340 22000 (2019) 94 (1981) 3590 113 187 313 414 1930 4170 5450 8880 16200
2026-05-01 07:45 8.52 1490 22000 (2019) 94 (1981) 3590 113 187 313 414 1930 4170 5450 8880 16200
2026-05-01 06:45 8.75 1630 22000 (2019) 94 (1981) 3590 113 187 313 414 1930 4170 5450 8880 16200
2026-05-01 05:45 8.92 1740 22000 (2019) 94 (1981) 3590 113 187 313 414 1930 4170 5450 8880 16200
2026-05-01 04:45 8.98 1780 22000 (2019) 94 (1981) 3590 113 187 313 414 1930 4170 5450 8880 16200
2026-05-01 03:45 8.87 1710 22000 (2019) 94 (1981) 3590 113 187 313 414 1930 4170 5450 8880 16200
2026-05-01 02:45 8.48 1470 22000 (2019) 94 (1981) 3590 113 187 313 414 1930 4170 5450 8880 16200
2026-05-01 01:45 7.71 1000 22000 (2019) 94 (1981) 3590 113 187 313 414 1930 4170 5450 8880 16200
2026-05-01 00:45 6.95 628 22000 (2019) 94 (1981) 3590 113 187 313 414 1930 4170 5450 8880 16200
2026-04-30 23:45 6.85 584 22000 (2019) 94 (1981) 3590 113 187 313 414 1930 4170 5450 8880 16200
2026-04-30 22:45 6.87 593 27700 (2017) 80 (2006) 3370 98 188 364 382 2290 4460 5110 7010 9380
2026-04-30 21:45 6.91 610 27700 (2017) 80 (2006) 3370 98 188 364 382 2290 4460 5110 7010 9380
2026-04-30 20:45 6.94 623 27700 (2017) 80 (2006) 3370 98 188 364 382 2290 4460 5110 7010 9380
2026-04-30 19:45 6.99 645 27700 (2017) 80 (2006) 3370 98 188 364 382 2290 4460 5110 7010 9380
2026-04-30 18:45 7.04 668 27700 (2017) 80 (2006) 3370 98 188 364 382 2290 4460 5110 7010 9380
2026-04-30 17:45 7.10 696 27700 (2017) 80 (2006) 3370 98 188 364 382 2290 4460 5110 7010 9380
2026-04-30 16:45 7.17 728 27700 (2017) 80 (2006) 3370 98 188 364 382 2290 4460 5110 7010 9380
2026-04-30 15:45 7.26 771 27700 (2017) 80 (2006) 3370 98 188 364 382 2290 4460 5110 7010 9380
2026-04-30 14:45 7.36 820 27700 (2017) 80 (2006) 3370 98 188 364 382 2290 4460 5110 7010 9380
2026-04-30 13:45 7.47 876 27700 (2017) 80 (2006) 3370 98 188 364 382 2290 4460 5110 7010 9380
2026-04-30 12:45 7.62 954 27700 (2017) 80 (2006) 3370 98 188 364 382 2290 4460 5110 7010 9380
2026-04-30 11:45 7.79 1050 27700 (2017) 80 (2006) 3370 98 188 364 382 2290 4460 5110 7010 9380
2026-04-30 10:45 7.99 1170 27700 (2017) 80 (2006) 3370 98 188 364 382 2290 4460 5110 7010 9380
2026-04-30 09:45 8.23 1320 27700 (2017) 80 (2006) 3370 98 188 364 382 2290 4460 5110 7010 9380
2026-04-30 08:45 8.48 1470 27700 (2017) 80 (2006) 3370 98 188 364 382 2290 4460 5110 7010 9380
2026-04-30 07:45 8.73 1620 27700 (2017) 80 (2006) 3370 98 188 364 382 2290 4460 5110 7010 9380
2026-04-30 06:45 8.97 1780 27700 (2017) 80 (2006) 3370 98 188 364 382 2290 4460 5110 7010 9380
2026-04-30 05:45 9.15 1900 27700 (2017) 80 (2006) 3370 98 188 364 382 2290 4460 5110 7010 9380
2026-04-30 04:45 9.24 1960 27700 (2017) 80 (2006) 3370 98 188 364 382 2290 4460 5110 7010 9380
2026-04-30 03:45 9.16 1900 27700 (2017) 80 (2006) 3370 98 188 364 382 2290 4460 5110 7010 9380
2026-04-30 02:45 8.82 1680 27700 (2017) 80 (2006) 3370 98 188 364 382 2290 4460 5110 7010 9380
2026-04-30 01:45 8.15 1260 27700 (2017) 80 (2006) 3370 98 188 364 382 2290 4460 5110 7010 9380
2026-04-30 00:45 7.41 845 27700 (2017) 80 (2006) 3370 98 188 364 382 2290 4460 5110 7010 9380
2026-04-29 23:45 7.25 766 27700 (2017) 80 (2006) 3370 98 188 364 382 2290 4460 5110 7010 9380
2026-04-29 22:45 7.29 786 8570 (2017) 74 (2006) 2610 96 171 355 449 2210 3970 4350 6680 7550
2026-04-29 21:45 7.34 810 8570 (2017) 74 (2006) 2610 96 171 355 449 2210 3970 4350 6680 7550
2026-04-29 20:45 7.39 835 8570 (2017) 74 (2006) 2610 96 171 355 449 2210 3970 4350 6680 7550
2026-04-29 19:45 7.46 870 8570 (2017) 74 (2006) 2610 96 171 355 449 2210 3970 4350 6680 7550
2026-04-29 18:45 7.52 901 8570 (2017) 74 (2006) 2610 96 171 355 449 2210 3970 4350 6680 7550
2026-04-29 17:45 7.60 943 8570 (2017) 74 (2006) 2610 96 171 355 449 2210 3970 4350 6680 7550
2026-04-29 16:45 7.70 998 8570 (2017) 74 (2006) 2610 96 171 355 449 2210 3970 4350 6680 7550
2026-04-29 15:45 7.81 1060 8570 (2017) 74 (2006) 2610 96 171 355 449 2210 3970 4350 6680 7550
2026-04-29 14:45 7.94 1140 8570 (2017) 74 (2006) 2610 96 171 355 449 2210 3970 4350 6680 7550
2026-04-29 13:45 8.12 1250 8570 (2017) 74 (2006) 2610 96 171 355 449 2210 3970 4350 6680 7550
2026-04-29 12:45 8.33 1380 8570 (2017) 74 (2006) 2610 96 171 355 449 2210 3970 4350 6680 7550
2026-04-29 11:45 8.60 1540 8570 (2017) 74 (2006) 2610 96 171 355 449 2210 3970 4350 6680 7550
2026-04-29 10:45 8.92 1740 8570 (2017) 74 (2006) 2610 96 171 355 449 2210 3970 4350 6680 7550
2026-04-29 09:45 9.29 1990 8570 (2017) 74 (2006) 2610 96 171 355 449 2210 3970 4350 6680 7550
2026-04-29 08:45 9.73 2300 8570 (2017) 74 (2006) 2610 96 171 355 449 2210 3970 4350 6680 7550
2026-04-29 07:45 10.20 2650 8570 (2017) 74 (2006) 2610 96 171 355 449 2210 3970 4350 6680 7550
2026-04-29 06:45 10.72 3060 8570 (2017) 74 (2006) 2610 96 171 355 449 2210 3970 4350 6680 7550
2026-04-29 05:45 11.21 3470 8570 (2017) 74 (2006) 2610 96 171 355 449 2210 3970 4350 6680 7550
2026-04-29 04:45 11.69 3890 8570 (2017) 74 (2006) 2610 96 171 355 449 2210 3970 4350 6680 7550
2026-04-29 03:45 12.08 4240 8570 (2017) 74 (2006) 2610 96 171 355 449 2210 3970 4350 6680 7550
2026-04-29 02:45 12.35 4490 8570 (2017) 74 (2006) 2610 96 171 355 449 2210 3970 4350 6680 7550
2026-04-29 01:45 12.40 4530 8570 (2017) 74 (2006) 2610 96 171 355 449 2210 3970 4350 6680 7550
2026-04-29 00:45 12.19 4340 8570 (2017) 74 (2006) 2610 96 171 355 449 2210 3970 4350 6680 7550
2026-04-28 23:45 11.57 3780 8570 (2017) 74 (2006) 2610 96 171 355 449 2210 3970 4350 6680 7550
2026-04-28 22:45 10.53 2910 8390 (2013) 69 (2006) 2460 96 184 368 542 1770 3580 4050 6020 7490
2026-04-28 21:45 9.12 1880 8390 (2013) 69 (2006) 2460 96 184 368 542 1770 3580 4050 6020 7490
2026-04-28 20:45 7.71 1000 8390 (2013) 69 (2006) 2460 96 184 368 542 1770 3580 4050 6020 7490
2026-04-28 19:45 7.32 800 8390 (2013) 69 (2006) 2460 96 184 368 542 1770 3580 4050 6020 7490
2026-04-28 18:45 7.35 815 8390 (2013) 69 (2006) 2460 96 184 368 542 1770 3580 4050 6020 7490
2026-04-28 17:45 7.40 840 8390 (2013) 69 (2006) 2460 96 184 368 542 1770 3580 4050 6020 7490
2026-04-28 16:45 7.47 876 8390 (2013) 69 (2006) 2460 96 184 368 542 1770 3580 4050 6020 7490
2026-04-28 15:45 7.56 922 8390 (2013) 69 (2006) 2460 96 184 368 542 1770 3580 4050 6020 7490
2026-04-28 14:45 7.68 986 8390 (2013) 69 (2006) 2460 96 184 368 542 1770 3580 4050 6020 7490
2026-04-28 13:45 7.84 1080 8390 (2013) 69 (2006) 2460 96 184 368 542 1770 3580 4050 6020 7490
2026-04-28 12:45 8.03 1190 8390 (2013) 69 (2006) 2460 96 184 368 542 1770 3580 4050 6020 7490
2026-04-28 11:45 8.28 1350 8390 (2013) 69 (2006) 2460 96 184 368 542 1770 3580 4050 6020 7490
2026-04-28 10:45 8.59 1530 8390 (2013) 69 (2006) 2460 96 184 368 542 1770 3580 4050 6020 7490
2026-04-28 09:45 8.93 1750 8390 (2013) 69 (2006) 2460 96 184 368 542 1770 3580 4050 6020 7490
2026-04-28 08:45 9.30 2000 8390 (2013) 69 (2006) 2460 96 184 368 542 1770 3580 4050 6020 7490
2026-04-28 07:45 9.69 2270 8390 (2013) 69 (2006) 2460 96 184 368 542 1770 3580 4050 6020 7490
2026-04-28 06:45 10.07 2550 8390 (2013) 69 (2006) 2460 96 184 368 542 1770 3580 4050 6020 7490
2026-04-28 05:45 10.42 2820 8390 (2013) 69 (2006) 2460 96 184 368 542 1770 3580 4050 6020 7490
2026-04-28 04:45 10.68 3030 8390 (2013) 69 (2006) 2460 96 184 368 542 1770 3580 4050 6020 7490
2026-04-28 03:45 10.77 3100 8390 (2013) 69 (2006) 2460 96 184 368 542 1770 3580 4050 6020 7490
2026-04-28 02:45 10.66 3010 8390 (2013) 69 (2006) 2460 96 184 368 542 1770 3580 4050 6020 7490
2026-04-28 01:45 10.18 2640 8390 (2013) 69 (2006) 2460 96 184 368 542 1770 3580 4050 6020 7490
2026-04-28 00:45 9.30 2000 8390 (2013) 69 (2006) 2460 96 184 368 542 1770 3580 4050 6020 7490
2026-04-27 23:45 8.15 1260 8390 (2013) 69 (2006) 2460 96 184 368 542 1770 3580 4050 6020 7490
2026-04-27 22:45 7.58 933 7980 (2008) 61 (2006) 2290 95 217 304 341 1380 3780 4010 5980 7690
2026-04-27 21:45 7.51 896 7980 (2008) 61 (2006) 2290 95 217 304 341 1380 3780 4010 5980 7690
2026-04-27 20:45 7.49 886 7980 (2008) 61 (2006) 2290 95 217 304 341 1380 3780 4010 5980 7690
2026-04-27 19:45 7.44 860 7980 (2008) 61 (2006) 2290 95 217 304 341 1380 3780 4010 5980 7690
2026-04-27 18:45 7.39 835 7980 (2008) 61 (2006) 2290 95 217 304 341 1380 3780 4010 5980 7690
2026-04-27 17:45 7.36 820 7980 (2008) 61 (2006) 2290 95 217 304 341 1380 3780 4010 5980 7690
2026-04-27 16:45 7.36 820 7980 (2008) 61 (2006) 2290 95 217 304 341 1380 3780 4010 5980 7690
2026-04-27 15:45 7.40 840 7980 (2008) 61 (2006) 2290 95 217 304 341 1380 3780 4010 5980 7690
2026-04-27 14:45 7.47 876 7980 (2008) 61 (2006) 2290 95 217 304 341 1380 3780 4010 5980 7690
2026-04-27 13:45 7.55 917 7980 (2008) 61 (2006) 2290 95 217 304 341 1380 3780 4010 5980 7690
2026-04-27 12:45 7.66 975 7980 (2008) 61 (2006) 2290 95 217 304 341 1380 3780 4010 5980 7690
2026-04-27 11:45 7.79 1050 7980 (2008) 61 (2006) 2290 95 217 304 341 1380 3780 4010 5980 7690
2026-04-27 10:45 7.92 1120 7980 (2008) 61 (2006) 2290 95 217 304 341 1380 3780 4010 5980 7690
2026-04-27 09:45 8.09 1230 7980 (2008) 61 (2006) 2290 95 217 304 341 1380 3780 4010 5980 7690
2026-04-27 08:45 8.27 1340 7980 (2008) 61 (2006) 2290 95 217 304 341 1380 3780 4010 5980 7690
2026-04-27 07:45 8.45 1450 7980 (2008) 61 (2006) 2290 95 217 304 341 1380 3780 4010 5980 7690
2026-04-27 06:45 8.63 1560 7980 (2008) 61 (2006) 2290 95 217 304 341 1380 3780 4010 5980 7690
2026-04-27 05:45 8.78 1650 7980 (2008) 61 (2006) 2290 95 217 304 341 1380 3780 4010 5980 7690
2026-04-27 04:45 8.88 1720 7980 (2008) 61 (2006) 2290 95 217 304 341 1380 3780 4010 5980 7690
2026-04-27 03:45 8.89 1720 7980 (2008) 61 (2006) 2290 95 217 304 341 1380 3780 4010 5980 7690
2026-04-27 02:45 8.78 1650 7980 (2008) 61 (2006) 2290 95 217 304 341 1380 3780 4010 5980 7690
2026-04-27 01:45 8.56 1520 7980 (2008) 61 (2006) 2290 95 217 304 341 1380 3780 4010 5980 7690
2026-04-27 00:45 8.29 1350 7980 (2008) 61 (2006) 2290 95 217 304 341 1380 3780 4010 5980 7690
2026-04-26 23:45 8.13 1250 7980 (2008) 61 (2006) 2290 95 217 304 341 1380 3780 4010 5980 7690
2026-04-26 22:45 7.92 1120 8440 (1999) 56 (2006) 2520 95 220 360 427 1570 3960 4120 7590 8170
2026-04-26 21:45 7.71 1000 8440 (1999) 56 (2006) 2520 95 220 360 427 1570 3960 4120 7590 8170
2026-04-26 20:45 7.45 865 8440 (1999) 56 (2006) 2520 95 220 360 427 1570 3960 4120 7590 8170
2026-04-26 19:45 7.31 796 8440 (1999) 56 (2006) 2520 95 220 360 427 1570 3960 4120 7590 8170
2026-04-26 18:45 7.27 776 8440 (1999) 56 (2006) 2520 95 220 360 427 1570 3960 4120 7590 8170
2026-04-26 17:45 7.23 757 8440 (1999) 56 (2006) 2520 95 220 360 427 1570 3960 4120 7590 8170
2026-04-26 16:45 7.28 781 8440 (1999) 56 (2006) 2520 95 220 360 427 1570 3960 4120 7590 8170
2026-04-26 15:45 7.35 815 8440 (1999) 56 (2006) 2520 95 220 360 427 1570 3960 4120 7590 8170
2026-04-26 14:45 7.43 855 8440 (1999) 56 (2006) 2520 95 220 360 427 1570 3960 4120 7590 8170
2026-04-26 13:45 7.52 901 8440 (1999) 56 (2006) 2520 95 220 360 427 1570 3960 4120 7590 8170
2026-04-26 12:45 7.63 959 8440 (1999) 56 (2006) 2520 95 220 360 427 1570 3960 4120 7590 8170
2026-04-26 11:45 7.77 1040 8440 (1999) 56 (2006) 2520 95 220 360 427 1570 3960 4120 7590 8170
2026-04-26 10:45 7.93 1130 8440 (1999) 56 (2006) 2520 95 220 360 427 1570 3960 4120 7590 8170
2026-04-26 09:45 8.12 1250 8440 (1999) 56 (2006) 2520 95 220 360 427 1570 3960 4120 7590 8170
2026-04-26 08:45 8.34 1380 8440 (1999) 56 (2006) 2520 95 220 360 427 1570 3960 4120 7590 8170
2026-04-26 07:45 8.57 1520 8440 (1999) 56 (2006) 2520 95 220 360 427 1570 3960 4120 7590 8170
2026-04-26 06:45 8.81 1670 8440 (1999) 56 (2006) 2520 95 220 360 427 1570 3960 4120 7590 8170
2026-04-26 05:45 9.02 1810 8440 (1999) 56 (2006) 2520 95 220 360 427 1570 3960 4120 7590 8170
2026-04-26 04:45 9.20 1930 8440 (1999) 56 (2006) 2520 95 220 360 427 1570 3960 4120 7590 8170
2026-04-26 03:45 9.27 1980 8440 (1999) 56 (2006) 2520 95 220 360 427 1570 3960 4120 7590 8170
2026-04-26 02:45 9.18 1920 8440 (1999) 56 (2006) 2520 95 220 360 427 1570 3960 4120 7590 8170
2026-04-26 01:45 8.86 1710 8440 (1999) 56 (2006) 2520 95 220 360 427 1570 3960 4120 7590 8170
2026-04-26 00:45 8.24 1320 8440 (1999) 56 (2006) 2520 95 220 360 427 1570 3960 4120 7590 8170
2026-04-25 23:45 7.60 943 8440 (1999) 56 (2006) 2520 95 220 360 427 1570 3960 4120 7590 8170
2026-04-25 22:45 7.44 860 11300 (2004) 56 (2006) 2360 99 210 295 391 1600 3900 4210 5550 9300
2026-04-25 21:45 7.48 881 11300 (2004) 56 (2006) 2360 99 210 295 391 1600 3900 4210 5550 9300
2026-04-25 20:45 7.53 906 11300 (2004) 56 (2006) 2360 99 210 295 391 1600 3900 4210 5550 9300
2026-04-25 19:45 7.59 938 11300 (2004) 56 (2006) 2360 99 210 295 391 1600 3900 4210 5550 9300
2026-04-25 18:45 7.67 981 11300 (2004) 56 (2006) 2360 99 210 295 391 1600 3900 4210 5550 9300
2026-04-25 17:45 7.75 1030 11300 (2004) 56 (2006) 2360 99 210 295 391 1600 3900 4210 5550 9300
2026-04-25 16:45 7.85 1080 11300 (2004) 56 (2006) 2360 99 210 295 391 1600 3900 4210 5550 9300
2026-04-25 15:45 7.98 1160 11300 (2004) 56 (2006) 2360 99 210 295 391 1600 3900 4210 5550 9300
2026-04-25 14:45 8.13 1250 11300 (2004) 56 (2006) 2360 99 210 295 391 1600 3900 4210 5550 9300
2026-04-25 13:45 8.32 1370 11300 (2004) 56 (2006) 2360 99 210 295 391 1600 3900 4210 5550 9300
2026-04-25 12:45 8.55 1510 11300 (2004) 56 (2006) 2360 99 210 295 391 1600 3900 4210 5550 9300
2026-04-25 11:45 8.82 1680 11300 (2004) 56 (2006) 2360 99 210 295 391 1600 3900 4210 5550 9300
2026-04-25 10:45 9.14 1890 11300 (2004) 56 (2006) 2360 99 210 295 391 1600 3900 4210 5550 9300
2026-04-25 09:45 9.50 2140 11300 (2004) 56 (2006) 2360 99 210 295 391 1600 3900 4210 5550 9300
2026-04-25 08:45 9.91 2430 11300 (2004) 56 (2006) 2360 99 210 295 391 1600 3900 4210 5550 9300
2026-04-25 07:45 10.35 2770 11300 (2004) 56 (2006) 2360 99 210 295 391 1600 3900 4210 5550 9300
2026-04-25 06:45 10.81 3140 11300 (2004) 56 (2006) 2360 99 210 295 391 1600 3900 4210 5550 9300
2026-04-25 05:45 11.27 3520 11300 (2004) 56 (2006) 2360 99 210 295 391 1600 3900 4210 5550 9300
2026-04-25 04:45 11.68 3880 11300 (2004) 56 (2006) 2360 99 210 295 391 1600 3900 4210 5550 9300
2026-04-25 03:45 12.00 4160 11300 (2004) 56 (2006) 2360 99 210 295 391 1600 3900 4210 5550 9300
2026-04-25 02:45 12.18 4330 11300 (2004) 56 (2006) 2360 99 210 295 391 1600 3900 4210 5550 9300
2026-04-25 01:45 12.16 4310 11300 (2004) 56 (2006) 2360 99 210 295 391 1600 3900 4210 5550 9300
2026-04-25 00:45 11.80 3980 11300 (2004) 56 (2006) 2360 99 210 295 391 1600 3900 4210 5550 9300
2026-04-24 23:45 11.04 3330 11300 (2004) 56 (2006) 2360 99 210 295 391 1600 3900 4210 5550 9300
2026-04-24 22:45 9.79 2350 10900 (1983) 59 (2006) 2200 110 257 331 391 1580 3400 3590 4910 7150
2026-04-24 21:45 8.48 1470 10900 (1983) 59 (2006) 2200 110 257 331 391 1580 3400 3590 4910 7150
2026-04-24 20:45 7.85 1080 10900 (1983) 59 (2006) 2200 110 257 331 391 1580 3400 3590 4910 7150
2026-04-24 19:45 7.83 1070 10900 (1983) 59 (2006) 2200 110 257 331 391 1580 3400 3590 4910 7150
2026-04-24 18:45 7.88 1100 10900 (1983) 59 (2006) 2200 110 257 331 391 1580 3400 3590 4910 7150
2026-04-24 17:45 7.95 1140 10900 (1983) 59 (2006) 2200 110 257 331 391 1580 3400 3590 4910 7150
2026-04-24 16:45 8.03 1190 10900 (1983) 59 (2006) 2200 110 257 331 391 1580 3400 3590 4910 7150
2026-04-24 15:45 8.12 1250 10900 (1983) 59 (2006) 2200 110 257 331 391 1580 3400 3590 4910 7150
2026-04-24 14:45 8.21 1300 10900 (1983) 59 (2006) 2200 110 257 331 391 1580 3400 3590 4910 7150
2026-04-24 13:45 8.32 1370 10900 (1983) 59 (2006) 2200 110 257 331 391 1580 3400 3590 4910 7150
2026-04-24 12:45 8.43 1440 10900 (1983) 59 (2006) 2200 110 257 331 391 1580 3400 3590 4910 7150
2026-04-24 11:45 8.57 1520 10900 (1983) 59 (2006) 2200 110 257 331 391 1580 3400 3590 4910 7150
2026-04-24 10:45 8.80 1670 10900 (1983) 59 (2006) 2200 110 257 331 391 1580 3400 3590 4910 7150
2026-04-24 09:45 9.07 1840 10900 (1983) 59 (2006) 2200 110 257 331 391 1580 3400 3590 4910 7150
2026-04-24 08:45 9.38 2050 10900 (1983) 59 (2006) 2200 110 257 331 391 1580 3400 3590 4910 7150
2026-04-24 07:45 9.74 2310 10900 (1983) 59 (2006) 2200 110 257 331 391 1580 3400 3590 4910 7150
2026-04-24 06:45 10.11 2580 10900 (1983) 59 (2006) 2200 110 257 331 391 1580 3400 3590 4910 7150
2026-04-24 05:45 10.46 2850 10900 (1983) 59 (2006) 2200 110 257 331 391 1580 3400 3590 4910 7150
2026-04-24 04:45 10.78 3110 10900 (1983) 59 (2006) 2200 110 257 331 391 1580 3400 3590 4910 7150
2026-04-24 03:45 11.00 3290 10900 (1983) 59 (2006) 2200 110 257 331 391 1580 3400 3590 4910 7150
2026-04-24 02:45 11.04 3330 10900 (1983) 59 (2006) 2200 110 257 331 391 1580 3400 3590 4910 7150
2026-04-24 01:45 10.78 3110 10900 (1983) 59 (2006) 2200 110 257 331 391 1580 3400 3590 4910 7150
2026-04-24 00:45 10.11 2580 10900 (1983) 59 (2006) 2200 110 257 331 391 1580 3400 3590 4910 7150
2026-04-23 23:45 8.93 1750 10900 (1983) 59 (2006) 2200 110 257 331 391 1580 3400 3590 4910 7150
2026-04-23 22:45 7.50 891 7170 (1983) 55 (2006) 2120 112 178 309 396 1760 3050 3540 4990 6340
2026-04-23 21:45 7.16 723 7170 (1983) 55 (2006) 2120 112 178 309 396 1760 3050 3540 4990 6340
2026-04-23 20:45 7.17 728 7170 (1983) 55 (2006) 2120 112 178 309 396 1760 3050 3540 4990 6340
2026-04-23 19:45 7.18 733 7170 (1983) 55 (2006) 2120 112 178 309 396 1760 3050 3540 4990 6340
2026-04-23 18:45 7.21 747 7170 (1983) 55 (2006) 2120 112 178 309 396 1760 3050 3540 4990 6340
2026-04-23 17:45 7.23 757 7170 (1983) 55 (2006) 2120 112 178 309 396 1760 3050 3540 4990 6340
2026-04-23 16:45 7.25 766 7170 (1983) 55 (2006) 2120 112 178 309 396 1760 3050 3540 4990 6340
2026-04-23 15:45 7.27 776 7170 (1983) 55 (2006) 2120 112 178 309 396 1760 3050 3540 4990 6340
2026-04-23 14:45 7.31 796 7170 (1983) 55 (2006) 2120 112 178 309 396 1760 3050 3540 4990 6340
2026-04-23 13:45 7.36 820 7170 (1983) 55 (2006) 2120 112 178 309 396 1760 3050 3540 4990 6340
2026-04-23 12:45 7.40 840 7170 (1983) 55 (2006) 2120 112 178 309 396 1760 3050 3540 4990 6340
2026-04-23 11:45 7.46 870 7170 (1983) 55 (2006) 2120 112 178 309 396 1760 3050 3540 4990 6340
2026-04-23 10:45 7.52 901 7170 (1983) 55 (2006) 2120 112 178 309 396 1760 3050 3540 4990 6340
2026-04-23 09:45 7.59 938 7170 (1983) 55 (2006) 2120 112 178 309 396 1760 3050 3540 4990 6340
2026-04-23 08:45 7.67 981 7170 (1983) 55 (2006) 2120 112 178 309 396 1760 3050 3540 4990 6340
2026-04-23 07:45 7.75 1030 7170 (1983) 55 (2006) 2120 112 178 309 396 1760 3050 3540 4990 6340
2026-04-23 06:45 7.83 1070 7170 (1983) 55 (2006) 2120 112 178 309 396 1760 3050 3540 4990 6340
2026-04-23 05:45 7.88 1100 7170 (1983) 55 (2006) 2120 112 178 309 396 1760 3050 3540 4990 6340
2026-04-23 04:45 7.90 1110 7170 (1983) 55 (2006) 2120 112 178 309 396 1760 3050 3540 4990 6340
2026-04-23 03:45 7.87 1100 7170 (1983) 55 (2006) 2120 112 178 309 396 1760 3050 3540 4990 6340
2026-04-23 02:45 7.77 1040 7170 (1983) 55 (2006) 2120 112 178 309 396 1760 3050 3540 4990 6340
2026-04-23 01:45 7.62 954 7170 (1983) 55 (2006) 2120 112 178 309 396 1760 3050 3540 4990 6340
2026-04-23 00:45 7.48 881 7170 (1983) 55 (2006) 2120 112 178 309 396 1760 3050 3540 4990 6340
2026-04-22 23:45 7.43 855 7170 (1983) 55 (2006) 2120 112 178 309 396 1760 3050 3540 4990 6340
2026-04-22 22:45 7.44 860 10200 (2025) 55 (2006) 2470 106 182 344 493 1870 3410 3770 6540 8240
2026-04-22 21:45 7.47 876 10200 (2025) 55 (2006) 2470 106 182 344 493 1870 3410 3770 6540 8240
2026-04-22 20:45 7.50 891 10200 (2025) 55 (2006) 2470 106 182 344 493 1870 3410 3770 6540 8240
2026-04-22 19:45 7.54 912 10200 (2025) 55 (2006) 2470 106 182 344 493 1870 3410 3770 6540 8240
2026-04-22 18:45 7.60 943 10200 (2025) 55 (2006) 2470 106 182 344 493 1870 3410 3770 6540 8240
2026-04-22 17:45 7.66 975 10200 (2025) 55 (2006) 2470 106 182 344 493 1870 3410 3770 6540 8240
2026-04-22 16:45 7.73 1010 10200 (2025) 55 (2006) 2470 106 182 344 493 1870 3410 3770 6540 8240
2026-04-22 15:45 7.83 1070 10200 (2025) 55 (2006) 2470 106 182 344 493 1870 3410 3770 6540 8240
2026-04-22 14:45 7.95 1140 10200 (2025) 55 (2006) 2470 106 182 344 493 1870 3410 3770 6540 8240
2026-04-22 13:45 8.09 1230 10200 (2025) 55 (2006) 2470 106 182 344 493 1870 3410 3770 6540 8240
2026-04-22 12:45 8.26 1330 10200 (2025) 55 (2006) 2470 106 182 344 493 1870 3410 3770 6540 8240
2026-04-22 11:45 8.48 1470 10200 (2025) 55 (2006) 2470 106 182 344 493 1870 3410 3770 6540 8240
2026-04-22 10:45 8.73 1620 10200 (2025) 55 (2006) 2470 106 182 344 493 1870 3410 3770 6540 8240
2026-04-22 09:45 9.02 1810 10200 (2025) 55 (2006) 2470 106 182 344 493 1870 3410 3770 6540 8240
2026-04-22 08:45 9.34 2030 10200 (2025) 55 (2006) 2470 106 182 344 493 1870 3410 3770 6540 8240
2026-04-22 07:45 9.68 2270 10200 (2025) 55 (2006) 2470 106 182 344 493 1870 3410 3770 6540 8240
2026-04-22 06:45 10.03 2520 10200 (2025) 55 (2006) 2470 106 182 344 493 1870 3410 3770 6540 8240
2026-04-22 05:45 10.35 2770 10200 (2025) 55 (2006) 2470 106 182 344 493 1870 3410 3770 6540 8240
2026-04-22 04:45 10.60 2970 10200 (2025) 55 (2006) 2470 106 182 344 493 1870 3410 3770 6540 8240
2026-04-22 03:45 10.72 3060 10200 (2025) 55 (2006) 2470 106 182 344 493 1870 3410 3770 6540 8240
2026-04-22 02:45 10.66 3010 10200 (2025) 55 (2006) 2470 106 182 344 493 1870 3410 3770 6540 8240
2026-04-22 01:45 10.27 2710 10200 (2025) 55 (2006) 2470 106 182 344 493 1870 3410 3770 6540 8240
2026-04-22 00:45 9.45 2100 10200 (2025) 55 (2006) 2470 106 182 344 493 1870 3410 3770 6540 8240
2026-04-21 23:45 8.34 1380 10200 (2025) 55 (2006) 2470 106 182 344 493 1870 3410 3770 6540 8240
2026-04-21 22:45 7.83 1070 17400 (2025) 57 (2006) 2630 100 169 352 468 1700 3660 4590 5890 7920
2026-04-21 21:45 7.82 1070 17400 (2025) 57 (2006) 2630 100 169 352 468 1700 3660 4590 5890 7920
2026-04-21 20:45 7.86 1090 17400 (2025) 57 (2006) 2630 100 169 352 468 1700 3660 4590 5890 7920
2026-04-21 19:45 7.89 1110 17400 (2025) 57 (2006) 2630 100 169 352 468 1700 3660 4590 5890 7920
2026-04-21 18:45 7.93 1130 17400 (2025) 57 (2006) 2630 100 169 352 468 1700 3660 4590 5890 7920
2026-04-21 17:45 7.98 1160 17400 (2025) 57 (2006) 2630 100 169 352 468 1700 3660 4590 5890 7920
2026-04-21 16:45 8.03 1190 17400 (2025) 57 (2006) 2630 100 169 352 468 1700 3660 4590 5890 7920
2026-04-21 15:45 8.08 1220 17400 (2025) 57 (2006) 2630 100 169 352 468 1700 3660 4590 5890 7920
2026-04-21 14:45 8.15 1260 17400 (2025) 57 (2006) 2630 100 169 352 468 1700 3660 4590 5890 7920
2026-04-21 13:45 8.22 1310 17400 (2025) 57 (2006) 2630 100 169 352 468 1700 3660 4590 5890 7920
2026-04-21 12:45 8.31 1360 17400 (2025) 57 (2006) 2630 100 169 352 468 1700 3660 4590 5890 7920
2026-04-21 11:45 8.43 1440 17400 (2025) 57 (2006) 2630 100 169 352 468 1700 3660 4590 5890 7920
2026-04-21 10:45 8.54 1500 17400 (2025) 57 (2006) 2630 100 169 352 468 1700 3660 4590 5890 7920
2026-04-21 09:45 8.67 1580 17400 (2025) 57 (2006) 2630 100 169 352 468 1700 3660 4590 5890 7920
2026-04-21 08:45 8.83 1690 17400 (2025) 57 (2006) 2630 100 169 352 468 1700 3660 4590 5890 7920
2026-04-21 07:45 8.98 1780 17400 (2025) 57 (2006) 2630 100 169 352 468 1700 3660 4590 5890 7920
2026-04-21 06:45 9.13 1880 17400 (2025) 57 (2006) 2630 100 169 352 468 1700 3660 4590 5890 7920
2026-04-21 05:45 9.26 1970 17400 (2025) 57 (2006) 2630 100 169 352 468 1700 3660 4590 5890 7920
2026-04-21 04:45 9.33 2020 17400 (2025) 57 (2006) 2630 100 169 352 468 1700 3660 4590 5890 7920
2026-04-21 03:45 9.33 2020 17400 (2025) 57 (2006) 2630 100 169 352 468 1700 3660 4590 5890 7920
2026-04-21 02:45 9.21 1940 17400 (2025) 57 (2006) 2630 100 169 352 468 1700 3660 4590 5890 7920
2026-04-21 01:45 8.96 1770 17400 (2025) 57 (2006) 2630 100 169 352 468 1700 3660 4590 5890 7920
2026-04-21 00:45 8.67 1580 17400 (2025) 57 (2006) 2630 100 169 352 468 1700 3660 4590 5890 7920
2026-04-20 23:45 8.51 1480 17400 (2025) 57 (2006) 2630 100 169 352 468 1700 3660 4590 5890 7920
2026-04-20 22:45 8.51 1480 10700 (2025) 58 (2006) 2190 97 170 413 441 1710 3400 3760 5650 6780
2026-04-20 21:45 8.56 1520 10700 (2025) 58 (2006) 2190 97 170 413 441 1710 3400 3760 5650 6780
2026-04-20 20:45 8.62 1550 10700 (2025) 58 (2006) 2190 97 170 413 441 1710 3400 3760 5650 6780
2026-04-20 19:45 8.68 1590 10700 (2025) 58 (2006) 2190 97 170 413 441 1710 3400 3760 5650 6780
2026-04-20 18:45 8.74 1630 10700 (2025) 58 (2006) 2190 97 170 413 441 1710 3400 3760 5650 6780
2026-04-20 17:45 8.82 1680 10700 (2025) 58 (2006) 2190 97 170 413 441 1710 3400 3760 5650 6780
2026-04-20 16:45 8.91 1740 10700 (2025) 58 (2006) 2190 97 170 413 441 1710 3400 3760 5650 6780
2026-04-20 15:45 9.01 1800 10700 (2025) 58 (2006) 2190 97 170 413 441 1710 3400 3760 5650 6780
2026-04-20 14:45 9.12 1880 10700 (2025) 58 (2006) 2190 97 170 413 441 1710 3400 3760 5650 6780
2026-04-20 13:45 9.24 1960 10700 (2025) 58 (2006) 2190 97 170 413 441 1710 3400 3760 5650 6780
2026-04-20 12:45 9.39 2060 10700 (2025) 58 (2006) 2190 97 170 413 441 1710 3400 3760 5650 6780
2026-04-20 11:45 9.55 2170 10700 (2025) 58 (2006) 2190 97 170 413 441 1710 3400 3760 5650 6780
2026-04-20 10:45 9.74 2310 10700 (2025) 58 (2006) 2190 97 170 413 441 1710 3400 3760 5650 6780
2026-04-20 09:45 9.96 2470 10700 (2025) 58 (2006) 2190 97 170 413 441 1710 3400 3760 5650 6780
2026-04-20 08:45 10.17 2630 10700 (2025) 58 (2006) 2190 97 170 413 441 1710 3400 3760 5650 6780
2026-04-20 07:45 10.40 2810 10700 (2025) 58 (2006) 2190 97 170 413 441 1710 3400 3760 5650 6780
2026-04-20 06:45 10.61 2970 10700 (2025) 58 (2006) 2190 97 170 413 441 1710 3400 3760 5650 6780
2026-04-20 05:45 10.79 3120 10700 (2025) 58 (2006) 2190 97 170 413 441 1710 3400 3760 5650 6780
2026-04-20 04:45 10.92 3230 10700 (2025) 58 (2006) 2190 97 170 413 441 1710 3400 3760 5650 6780
2026-04-20 03:45 10.97 3270 10700 (2025) 58 (2006) 2190 97 170 413 441 1710 3400 3760 5650 6780
2026-04-20 02:45 10.95 3250 10700 (2025) 58 (2006) 2190 97 170 413 441 1710 3400 3760 5650 6780
2026-04-20 01:45 10.93 3230 10700 (2025) 58 (2006) 2190 97 170 413 441 1710 3400 3760 5650 6780
2026-04-20 00:45 11.04 3330 10700 (2025) 58 (2006) 2190 97 170 413 441 1710 3400 3760 5650 6780
2026-04-19 23:45 11.27 3520 10700 (2025) 58 (2006) 2190 97 170 413 441 1710 3400 3760 5650 6780
2026-04-19 22:45 11.57 3780 10500 (2013) 59 (2006) 2240 94 176 435 712 1820 2950 3680 5060 7170
2026-04-19 21:45 11.89 4060 10500 (2013) 59 (2006) 2240 94 176 435 712 1820 2950 3680 5060 7170
2026-04-19 20:45 12.22 4370 10500 (2013) 59 (2006) 2240 94 176 435 712 1820 2950 3680 5060 7170
2026-04-19 19:45 12.55 4680 10500 (2013) 59 (2006) 2240 94 176 435 712 1820 2950 3680 5060 7170
2026-04-19 18:45 12.90 5010 10500 (2013) 59 (2006) 2240 94 176 435 712 1820 2950 3680 5060 7170
2026-04-19 17:45 13.25 5360 10500 (2013) 59 (2006) 2240 94 176 435 712 1820 2950 3680 5060 7170
2026-04-19 16:45 13.58 5690 10500 (2013) 59 (2006) 2240 94 176 435 712 1820 2950 3680 5060 7170
2026-04-19 15:45 13.96 6070 10500 (2013) 59 (2006) 2240 94 176 435 712 1820 2950 3680 5060 7170
2026-04-19 14:45 14.32 6440 10500 (2013) 59 (2006) 2240 94 176 435 712 1820 2950 3680 5060 7170
2026-04-19 13:45 14.68 6810 10500 (2013) 59 (2006) 2240 94 176 435 712 1820 2950 3680 5060 7170
2026-04-19 12:45 15.04 7200 10500 (2013) 59 (2006) 2240 94 176 435 712 1820 2950 3680 5060 7170
2026-04-19 11:45 15.48 7680 10500 (2013) 59 (2006) 2240 94 176 435 712 1820 2950 3680 5060 7170
2026-04-19 10:45 15.86 8100 10500 (2013) 59 (2006) 2240 94 176 435 712 1820 2950 3680 5060 7170
2026-04-19 09:45 16.25 8550 10500 (2013) 59 (2006) 2240 94 176 435 712 1820 2950 3680 5060 7170
2026-04-19 08:45 16.61 8970 10500 (2013) 59 (2006) 2240 94 176 435 712 1820 2950 3680 5060 7170
2026-04-19 07:45 16.93 9340 10500 (2013) 59 (2006) 2240 94 176 435 712 1820 2950 3680 5060 7170
2026-04-19 06:45 17.30 9790 10500 (2013) 59 (2006) 2240 94 176 435 712 1820 2950 3680 5060 7170
2026-04-19 05:45 17.60 10200 10500 (2013) 59 (2006) 2240 94 176 435 712 1820 2950 3680 5060 7170
2026-04-19 04:45 17.82 10400 10500 (2013) 59 (2006) 2240 94 176 435 712 1820 2950 3680 5060 7170
2026-04-19 03:45 18.08 10800 10500 (2013) 59 (2006) 2240 94 176 435 712 1820 2950 3680 5060 7170
2026-04-19 02:45 18.18 10900 10500 (2013) 59 (2006) 2240 94 176 435 712 1820 2950 3680 5060 7170
2026-04-19 01:45 18.25 11000 10500 (2013) 59 (2006) 2240 94 176 435 712 1820 2950 3680 5060 7170
2026-04-19 00:45 18.29 11000 10500 (2013) 59 (2006) 2240 94 176 435 712 1820 2950 3680 5060 7170
2026-04-18 23:45 18.33 11100 10500 (2013) 59 (2006) 2240 94 176 435 712 1820 2950 3680 5060 7170
2026-04-18 22:45 18.34 11100 7880 (2008) 61 (2006) 2160 90 187 291 427 1490 3340 3860 5460 6780
2026-04-18 21:45 18.40 11200 7880 (2008) 61 (2006) 2160 90 187 291 427 1490 3340 3860 5460 6780
2026-04-18 20:45 18.50 11300 7880 (2008) 61 (2006) 2160 90 187 291 427 1490 3340 3860 5460 6780
2026-04-18 19:45 18.48 11300 7880 (2008) 61 (2006) 2160 90 187 291 427 1490 3340 3860 5460 6780
2026-04-18 18:45 18.46 11200 7880 (2008) 61 (2006) 2160 90 187 291 427 1490 3340 3860 5460 6780
2026-04-18 17:45 18.45 11200 7880 (2008) 61 (2006) 2160 90 187 291 427 1490 3340 3860 5460 6780
2026-04-18 16:45 18.41 11200 7880 (2008) 61 (2006) 2160 90 187 291 427 1490 3340 3860 5460 6780
2026-04-18 15:45 18.32 11100 7880 (2008) 61 (2006) 2160 90 187 291 427 1490 3340 3860 5460 6780
2026-04-18 14:45 18.30 11000 7880 (2008) 61 (2006) 2160 90 187 291 427 1490 3340 3860 5460 6780
2026-04-18 13:45 18.18 10900 7880 (2008) 61 (2006) 2160 90 187 291 427 1490 3340 3860 5460 6780
2026-04-18 12:45 18.06 10700 7880 (2008) 61 (2006) 2160 90 187 291 427 1490 3340 3860 5460 6780
2026-04-18 11:45 17.90 10500 7880 (2008) 61 (2006) 2160 90 187 291 427 1490 3340 3860 5460 6780
2026-04-18 10:45 17.77 10400 7880 (2008) 61 (2006) 2160 90 187 291 427 1490 3340 3860 5460 6780
2026-04-18 09:45 17.41 9920 7880 (2008) 61 (2006) 2160 90 187 291 427 1490 3340 3860 5460 6780
2026-04-18 08:45 17.13 9580 7880 (2008) 61 (2006) 2160 90 187 291 427 1490 3340 3860 5460 6780
2026-04-18 07:45 16.68 9050 7880 (2008) 61 (2006) 2160 90 187 291 427 1490 3340 3860 5460 6780
2026-04-18 06:45 16.18 8470 7880 (2008) 61 (2006) 2160 90 187 291 427 1490 3340 3860 5460 6780
2026-04-18 05:45 15.62 7830 7880 (2008) 61 (2006) 2160 90 187 291 427 1490 3340 3860 5460 6780
2026-04-18 04:45 15.14 7310 7880 (2008) 61 (2006) 2160 90 187 291 427 1490 3340 3860 5460 6780
2026-04-18 03:45 14.63 6760 7880 (2008) 61 (2006) 2160 90 187 291 427 1490 3340 3860 5460 6780
2026-04-18 02:45 14.21 6330 7880 (2008) 61 (2006) 2160 90 187 291 427 1490 3340 3860 5460 6780
2026-04-18 01:45 13.82 5930 7880 (2008) 61 (2006) 2160 90 187 291 427 1490 3340 3860 5460 6780
2026-04-18 00:45 13.44 5550 7880 (2008) 61 (2006) 2160 90 187 291 427 1490 3340 3860 5460 6780
2026-04-17 23:45 13.11 5220 7880 (2008) 61 (2006) 2160 90 187 291 427 1490 3340 3860 5460 6780
2026-04-17 22:45 12.82 4940 7720 (2008) 63 (2006) 2030 90 203 297 479 1760 3130 3340 4170 5700
2026-04-17 21:45 12.63 4750 7720 (2008) 63 (2006) 2030 90 203 297 479 1760 3130 3340 4170 5700
2026-04-17 20:45 12.56 4690 7720 (2008) 63 (2006) 2030 90 203 297 479 1760 3130 3340 4170 5700
2026-04-17 19:45 12.58 4710 7720 (2008) 63 (2006) 2030 90 203 297 479 1760 3130 3340 4170 5700
2026-04-17 18:45 12.60 4720 7720 (2008) 63 (2006) 2030 90 203 297 479 1760 3130 3340 4170 5700
2026-04-17 17:45 12.63 4750 7720 (2008) 63 (2006) 2030 90 203 297 479 1760 3130 3340 4170 5700
2026-04-17 16:45 12.67 4790 7720 (2008) 63 (2006) 2030 90 203 297 479 1760 3130 3340 4170 5700
2026-04-17 15:45 12.70 4820 7720 (2008) 63 (2006) 2030 90 203 297 479 1760 3130 3340 4170 5700
2026-04-17 14:45 12.79 4910 7720 (2008) 63 (2006) 2030 90 203 297 479 1760 3130 3340 4170 5700
2026-04-17 13:45 12.86 4980 7720 (2008) 63 (2006) 2030 90 203 297 479 1760 3130 3340 4170 5700
2026-04-17 12:45 12.96 5070 7720 (2008) 63 (2006) 2030 90 203 297 479 1760 3130 3340 4170 5700
2026-04-17 11:45 13.08 5190 7720 (2008) 63 (2006) 2030 90 203 297 479 1760 3130 3340 4170 5700
2026-04-17 10:45 13.25 5360 7720 (2008) 63 (2006) 2030 90 203 297 479 1760 3130 3340 4170 5700
2026-04-17 09:45 13.52 5630 7720 (2008) 63 (2006) 2030 90 203 297 479 1760 3130 3340 4170 5700
2026-04-17 08:45 13.75 5860 7720 (2008) 63 (2006) 2030 90 203 297 479 1760 3130 3340 4170 5700
2026-04-17 07:45 14.05 6160 7720 (2008) 63 (2006) 2030 90 203 297 479 1760 3130 3340 4170 5700
2026-04-17 06:45 14.41 6530 7720 (2008) 63 (2006) 2030 90 203 297 479 1760 3130 3340 4170 5700
2026-04-17 05:45 14.80 6940 7720 (2008) 63 (2006) 2030 90 203 297 479 1760 3130 3340 4170 5700
2026-04-17 04:45 15.22 7390 7720 (2008) 63 (2006) 2030 90 203 297 479 1760 3130 3340 4170 5700
2026-04-17 03:45 15.59 7800 7720 (2008) 63 (2006) 2030 90 203 297 479 1760 3130 3340 4170 5700
2026-04-17 02:45 16.00 8260 7720 (2008) 63 (2006) 2030 90 203 297 479 1760 3130 3340 4170 5700
2026-04-17 01:45 16.40 8720 7720 (2008) 63 (2006) 2030 90 203 297 479 1760 3130 3340 4170 5700
2026-04-17 00:45 16.76 9140 7720 (2008) 63 (2006) 2030 90 203 297 479 1760 3130 3340 4170 5700
2026-04-16 23:45 17.00 9430 7720 (2008) 63 (2006) 2030 90 203 297 479 1760 3130 3340 4170 5700
2026-04-16 22:45 17.12 9570 6980 (2008) 63 (2006) 2330 96 161 271 407 1850 3820 4070 5340 5940
2026-04-16 21:45 17.22 9690 6980 (2008) 63 (2006) 2330 96 161 271 407 1850 3820 4070 5340 5940
2026-04-16 20:45 17.15 9610 6980 (2008) 63 (2006) 2330 96 161 271 407 1850 3820 4070 5340 5940
2026-04-16 19:45 16.98 9400 6980 (2008) 63 (2006) 2330 96 161 271 407 1850 3820 4070 5340 5940
2026-04-16 18:45 16.62 8980 6980 (2008) 63 (2006) 2330 96 161 271 407 1850 3820 4070 5340 5940
2026-04-16 17:45 16.17 8460 6980 (2008) 63 (2006) 2330 96 161 271 407 1850 3820 4070 5340 5940
2026-04-16 16:45 15.58 7790 6980 (2008) 63 (2006) 2330 96 161 271 407 1850 3820 4070 5340 5940
2026-04-16 15:45 14.91 7060 6980 (2008) 63 (2006) 2330 96 161 271 407 1850 3820 4070 5340 5940
2026-04-16 14:45 14.09 6200 6980 (2008) 63 (2006) 2330 96 161 271 407 1850 3820 4070 5340 5940
2026-04-16 13:45 13.25 5360 6980 (2008) 63 (2006) 2330 96 161 271 407 1850 3820 4070 5340 5940
2026-04-16 12:45 12.28 4420 6980 (2008) 63 (2006) 2330 96 161 271 407 1850 3820 4070 5340 5940
2026-04-16 11:45 11.18 3440 6980 (2008) 63 (2006) 2330 96 161 271 407 1850 3820 4070 5340 5940
2026-04-16 10:45 10.21 2660 6980 (2008) 63 (2006) 2330 96 161 271 407 1850 3820 4070 5340 5940
2026-04-16 09:45 9.53 2160 6980 (2008) 63 (2006) 2330 96 161 271 407 1850 3820 4070 5340 5940
2026-04-16 08:45 9.15 1900 6980 (2008) 63 (2006) 2330 96 161 271 407 1850 3820 4070 5340 5940
2026-04-16 07:45 8.98 1780 6980 (2008) 63 (2006) 2330 96 161 271 407 1850 3820 4070 5340 5940
2026-04-16 06:45 8.99 1790 6980 (2008) 63 (2006) 2330 96 161 271 407 1850 3820 4070 5340 5940
2026-04-16 05:45 9.08 1850 6980 (2008) 63 (2006) 2330 96 161 271 407 1850 3820 4070 5340 5940
2026-04-16 04:45 9.18 1920 6980 (2008) 63 (2006) 2330 96 161 271 407 1850 3820 4070 5340 5940
2026-04-16 03:45 9.19 1920 6980 (2008) 63 (2006) 2330 96 161 271 407 1850 3820 4070 5340 5940
2026-04-16 02:45 9.02 1810 6980 (2008) 63 (2006) 2330 96 161 271 407 1850 3820 4070 5340 5940
2026-04-16 01:45 8.58 1530 6980 (2008) 63 (2006) 2330 96 161 271 407 1850 3820 4070 5340 5940
2026-04-16 00:45 7.74 1020 6980 (2008) 63 (2006) 2330 96 161 271 407 1850 3820 4070 5340 5940
2026-04-15 23:45 6.96 632 6980 (2008) 63 (2006) 2330 96 161 271 407 1850 3820 4070 5340 5940
2026-04-15 22:45 6.88 597 9780 (1999) 65 (2006) 2490 95 154 300 382 2500 4020 4370 5250 6170
2026-04-15 21:45 6.89 601 9780 (1999) 65 (2006) 2490 95 154 300 382 2500 4020 4370 5250 6170
2026-04-15 20:45 6.91 610 9780 (1999) 65 (2006) 2490 95 154 300 382 2500 4020 4370 5250 6170
2026-04-15 19:45 6.94 623 9780 (1999) 65 (2006) 2490 95 154 300 382 2500 4020 4370 5250 6170
2026-04-15 18:45 6.97 637 9780 (1999) 65 (2006) 2490 95 154 300 382 2500 4020 4370 5250 6170
2026-04-15 17:45 7.01 654 9780 (1999) 65 (2006) 2490 95 154 300 382 2500 4020 4370 5250 6170
2026-04-15 16:45 7.06 677 9780 (1999) 65 (2006) 2490 95 154 300 382 2500 4020 4370 5250 6170
2026-04-15 15:45 7.12 705 9780 (1999) 65 (2006) 2490 95 154 300 382 2500 4020 4370 5250 6170
2026-04-15 14:45 7.19 738 9780 (1999) 65 (2006) 2490 95 154 300 382 2500 4020 4370 5250 6170
2026-04-15 13:45 7.28 781 9780 (1999) 65 (2006) 2490 95 154 300 382 2500 4020 4370 5250 6170
2026-04-15 12:45 7.38 830 9780 (1999) 65 (2006) 2490 95 154 300 382 2500 4020 4370 5250 6170
2026-04-15 11:45 7.51 896 9780 (1999) 65 (2006) 2490 95 154 300 382 2500 4020 4370 5250 6170
2026-04-15 10:45 7.68 986 9780 (1999) 65 (2006) 2490 95 154 300 382 2500 4020 4370 5250 6170
2026-04-15 09:45 7.89 1110 9780 (1999) 65 (2006) 2490 95 154 300 382 2500 4020 4370 5250 6170
2026-04-15 08:45 8.14 1260 9780 (1999) 65 (2006) 2490 95 154 300 382 2500 4020 4370 5250 6170
2026-04-15 07:45 8.43 1440 9780 (1999) 65 (2006) 2490 95 154 300 382 2500 4020 4370 5250 6170
2026-04-15 06:45 8.77 1650 9780 (1999) 65 (2006) 2490 95 154 300 382 2500 4020 4370 5250 6170
2026-04-15 05:45 9.11 1870 9780 (1999) 65 (2006) 2490 95 154 300 382 2500 4020 4370 5250 6170
2026-04-15 04:45 9.47 2120 9780 (1999) 65 (2006) 2490 95 154 300 382 2500 4020 4370 5250 6170
2026-04-15 03:45 9.80 2350 9780 (1999) 65 (2006) 2490 95 154 300 382 2500 4020 4370 5250 6170
2026-04-15 02:45 10.05 2540 9780 (1999) 65 (2006) 2490 95 154 300 382 2500 4020 4370 5250 6170
2026-04-15 01:45 10.14 2610 9780 (1999) 65 (2006) 2490 95 154 300 382 2500 4020 4370 5250 6170
2026-04-15 00:45 1 2500 9780 (1999) 65 (2006) 2490 95 154 300 382 2500 4020 4370 5250 6170
2026-04-14 23:45 9.48 2120 9780 (1999) 65 (2006) 2490 95 154 300 382 2500 4020 4370 5250 6170
2026-04-14 22:45 8.44 1440 7450 (1994) 66 (2006) 2340 93 161 271 384 1670 3850 4330 5880 6590
2026-04-14 21:45 7.16 723 7450 (1994) 66 (2006) 2340 93 161 271 384 1670 3850 4330 5880 6590
2026-04-14 20:45 6.98 641 7450 (1994) 66 (2006) 2340 93 161 271 384 1670 3850 4330 5880 6590
2026-04-14 19:45 7.02 659 7450 (1994) 66 (2006) 2340 93 161 271 384 1670 3850 4330 5880 6590
2026-04-14 18:45 7.08 686 7450 (1994) 66 (2006) 2340 93 161 271 384 1670 3850 4330 5880 6590
2026-04-14 17:45 7.13 709 7450 (1994) 66 (2006) 2340 93 161 271 384 1670 3850 4330 5880 6590
2026-04-14 16:45 7.21 747 7450 (1994) 66 (2006) 2340 93 161 271 384 1670 3850 4330 5880 6590
2026-04-14 15:45 7.29 786 7450 (1994) 66 (2006) 2340 93 161 271 384 1670 3850 4330 5880 6590
2026-04-14 14:45 7.39 835 7450 (1994) 66 (2006) 2340 93 161 271 384 1670 3850 4330 5880 6590
2026-04-14 13:45 7.53 906 7450 (1994) 66 (2006) 2340 93 161 271 384 1670 3850 4330 5880 6590
2026-04-14 12:45 7.68 986 7450 (1994) 66 (2006) 2340 93 161 271 384 1670 3850 4330 5880 6590
2026-04-14 11:45 7.86 1090 7450 (1994) 66 (2006) 2340 93 161 271 384 1670 3850 4330 5880 6590
2026-04-14 09:45 8.33 1380 7450 (1994) 66 (2006) 2340 93 161 271 384 1670 3850 4330 5880 6590
2026-04-14 08:45 8.60 1540 7450 (1994) 66 (2006) 2340 93 161 271 384 1670 3850 4330 5880 6590
2026-04-14 07:45 8.88 1720 7450 (1994) 66 (2006) 2340 93 161 271 384 1670 3850 4330 5880 6590
2026-04-14 06:45 9.16 1900 7450 (1994) 66 (2006) 2340 93 161 271 384 1670 3850 4330 5880 6590
2026-04-14 05:45 9.39 2060 7450 (1994) 66 (2006) 2340 93 161 271 384 1670 3850 4330 5880 6590
2026-04-14 04:45 9.52 2150 7450 (1994) 66 (2006) 2340 93 161 271 384 1670 3850 4330 5880 6590
2026-04-14 03:45 9.49 2130 7450 (1994) 66 (2006) 2340 93 161 271 384 1670 3850 4330 5880 6590
2026-04-14 02:45 9.19 1920 7450 (1994) 66 (2006) 2340 93 161 271 384 1670 3850 4330 5880 6590
2026-04-14 01:45 8.49 1470 7450 (1994) 66 (2006) 2340 93 161 271 384 1670 3850 4330 5880 6590
2026-04-14 00:45 7.41 845 7450 (1994) 66 (2006) 2340 93 161 271 384 1670 3850 4330 5880 6590
2026-04-13 23:45 7.01 654 7450 (1994) 66 (2006) 2340 93 161 271 384 1670 3850 4330 5880 6590
2026-04-13 22:45 7.02 659 20200 (1994) 60 (1981) 2500 86 158 336 439 1480 3690 3900 5860 6560
2026-04-13 21:45 7.03 663 20200 (1994) 60 (1981) 2500 86 158 336 439 1480 3690 3900 5860 6560
2026-04-13 20:45 7.04 668 20200 (1994) 60 (1981) 2500 86 158 336 439 1480 3690 3900 5860 6560
2026-04-13 19:45 7.06 677 20200 (1994) 60 (1981) 2500 86 158 336 439 1480 3690 3900 5860 6560
2026-04-13 18:45 7.06 677 20200 (1994) 60 (1981) 2500 86 158 336 439 1480 3690 3900 5860 6560
2026-04-13 17:45 7.08 686 20200 (1994) 60 (1981) 2500 86 158 336 439 1480 3690 3900 5860 6560
2026-04-13 16:45 7.09 691 20200 (1994) 60 (1981) 2500 86 158 336 439 1480 3690 3900 5860 6560
2026-04-13 15:45 7.10 696 20200 (1994) 60 (1981) 2500 86 158 336 439 1480 3690 3900 5860 6560
2026-04-13 14:45 7.12 705 20200 (1994) 60 (1981) 2500 86 158 336 439 1480 3690 3900 5860 6560
2026-04-13 13:45 7.13 709 20200 (1994) 60 (1981) 2500 86 158 336 439 1480 3690 3900 5860 6560
2026-04-13 12:45 7.15 719 20200 (1994) 60 (1981) 2500 86 158 336 439 1480 3690 3900 5860 6560
2026-04-13 11:45 7.16 723 20200 (1994) 60 (1981) 2500 86 158 336 439 1480 3690 3900 5860 6560
2026-04-13 10:45 7.18 733 20200 (1994) 60 (1981) 2500 86 158 336 439 1480 3690 3900 5860 6560
2026-04-13 09:45 7.19 738 20200 (1994) 60 (1981) 2500 86 158 336 439 1480 3690 3900 5860 6560
2026-04-13 08:45 7.21 747 20200 (1994) 60 (1981) 2500 86 158 336 439 1480 3690 3900 5860 6560
2026-04-13 07:45 7.22 752 20200 (1994) 60 (1981) 2500 86 158 336 439 1480 3690 3900 5860 6560
2026-04-13 06:45 7.24 762 20200 (1994) 60 (1981) 2500 86 158 336 439 1480 3690 3900 5860 6560
2026-04-13 05:45 7.25 766 20200 (1994) 60 (1981) 2500 86 158 336 439 1480 3690 3900 5860 6560
2026-04-13 04:45 7.27 776 20200 (1994) 60 (1981) 2500 86 158 336 439 1480 3690 3900 5860 6560
2026-04-13 03:45 7.29 786 20200 (1994) 60 (1981) 2500 86 158 336 439 1480 3690 3900 5860 6560
2026-04-13 02:45 7.31 796 20200 (1994) 60 (1981) 2500 86 158 336 439 1480 3690 3900 5860 6560
2026-04-13 01:45 7.33 805 20200 (1994) 60 (1981) 2500 86 158 336 439 1480 3690 3900 5860 6560
2026-04-13 00:45 7.35 815 20200 (1994) 60 (1981) 2500 86 158 336 439 1480 3690 3900 5860 6560
2026-04-12 23:45 7.37 825 20200 (1994) 60 (1981) 2500 86 158 336 439 1480 3690 3900 5860 6560
2026-04-12 22:45 7.39 835 50300 (1994) 62 (1981) 3380 87 163 346 498 1640 3540 4450 6470 10500
2026-04-12 21:45 7.42 850 50300 (1994) 62 (1981) 3380 87 163 346 498 1640 3540 4450 6470 10500
2026-04-12 20:45 7.45 865 50300 (1994) 62 (1981) 3380 87 163 346 498 1640 3540 4450 6470 10500
2026-04-12 19:45 7.47 876 50300 (1994) 62 (1981) 3380 87 163 346 498 1640 3540 4450 6470 10500
2026-04-12 18:45 7.50 891 50300 (1994) 62 (1981) 3380 87 163 346 498 1640 3540 4450 6470 10500
2026-04-12 17:45 7.53 906 50300 (1994) 62 (1981) 3380 87 163 346 498 1640 3540 4450 6470 10500
2026-04-12 16:45 7.56 922 50300 (1994) 62 (1981) 3380 87 163 346 498 1640 3540 4450 6470 10500
2026-04-12 15:45 7.60 943 50300 (1994) 62 (1981) 3380 87 163 346 498 1640 3540 4450 6470 10500
2026-04-12 14:45 7.63 959 50300 (1994) 62 (1981) 3380 87 163 346 498 1640 3540 4450 6470 10500
2026-04-12 13:45 7.67 981 50300 (1994) 62 (1981) 3380 87 163 346 498 1640 3540 4450 6470 10500
2026-04-12 12:45 7.71 1000 50300 (1994) 62 (1981) 3380 87 163 346 498 1640 3540 4450 6470 10500
2026-04-12 11:45 7.74 1020 50300 (1994) 62 (1981) 3380 87 163 346 498 1640 3540 4450 6470 10500
2026-04-12 10:45 7.80 1050 50300 (1994) 62 (1981) 3380 87 163 346 498 1640 3540 4450 6470 10500
2026-04-12 09:45 7.84 1080 50300 (1994) 62 (1981) 3380 87 163 346 498 1640 3540 4450 6470 10500
2026-04-12 08:45 7.89 1110 50300 (1994) 62 (1981) 3380 87 163 346 498 1640 3540 4450 6470 10500
2026-04-12 07:45 7.94 1140 50300 (1994) 62 (1981) 3380 87 163 346 498 1640 3540 4450 6470 10500
2026-04-12 06:45 8.00 1170 50300 (1994) 62 (1981) 3380 87 163 346 498 1640 3540 4450 6470 10500
2026-04-12 05:45 8.05 1200 50300 (1994) 62 (1981) 3380 87 163 346 498 1640 3540 4450 6470 10500
2026-04-12 04:45 8.10 1230 50300 (1994) 62 (1981) 3380 87 163 346 498 1640 3540 4450 6470 10500
2026-04-12 03:45 8.15 1260 50300 (1994) 62 (1981) 3380 87 163 346 498 1640 3540 4450 6470 10500
2026-04-12 02:45 8.20 1300 50300 (1994) 62 (1981) 3380 87 163 346 498 1640 3540 4450 6470 10500
2026-04-12 01:45 8.26 1330 50300 (1994) 62 (1981) 3380 87 163 346 498 1640 3540 4450 6470 10500
2026-04-12 00:45 8.31 1360 50300 (1994) 62 (1981) 3380 87 163 346 498 1640 3540 4450 6470 10500
2026-04-11 23:45 8.36 1390 50300 (1994) 62 (1981) 3380 87 163 346 498 1640 3540 4450 6470 10500
2026-04-11 22:45 8.42 1430 30500 (1994) 58 (1981) 3200 96 204 366 459 1470 3800 4740 7100 14500
2026-04-11 21:45 8.48 1470 30500 (1994) 58 (1981) 3200 96 204 366 459 1470 3800 4740 7100 14500
2026-04-11 20:45 8.54 1500 30500 (1994) 58 (1981) 3200 96 204 366 459 1470 3800 4740 7100 14500
2026-04-11 19:45 8.61 1550 30500 (1994) 58 (1981) 3200 96 204 366 459 1470 3800 4740 7100 14500
2026-04-11 18:45 8.68 1590 30500 (1994) 58 (1981) 3200 96 204 366 459 1470 3800 4740 7100 14500
2026-04-11 17:45 8.76 1640 30500 (1994) 58 (1981) 3200 96 204 366 459 1470 3800 4740 7100 14500
2026-04-11 16:45 8.83 1690 30500 (1994) 58 (1981) 3200 96 204 366 459 1470 3800 4740 7100 14500
2026-04-11 15:45 8.92 1740 30500 (1994) 58 (1981) 3200 96 204 366 459 1470 3800 4740 7100 14500
2026-04-11 14:45 9.00 1800 30500 (1994) 58 (1981) 3200 96 204 366 459 1470 3800 4740 7100 14500
2026-04-11 13:45 9.07 1840 30500 (1994) 58 (1981) 3200 96 204 366 459 1470 3800 4740 7100 14500
2026-04-11 12:45 9.13 1880 30500 (1994) 58 (1981) 3200 96 204 366 459 1470 3800 4740 7100 14500
2026-04-11 11:45 9.19 1920 30500 (1994) 58 (1981) 3200 96 204 366 459 1470 3800 4740 7100 14500
2026-04-11 10:45 9.23 1950 30500 (1994) 58 (1981) 3200 96 204 366 459 1470 3800 4740 7100 14500
2026-04-11 09:45 9.28 1980 30500 (1994) 58 (1981) 3200 96 204 366 459 1470 3800 4740 7100 14500
2026-04-11 08:45 9.33 2020 30500 (1994) 58 (1981) 3200 96 204 366 459 1470 3800 4740 7100 14500
2026-04-11 07:45 9.42 2080 30500 (1994) 58 (1981) 3200 96 204 366 459 1470 3800 4740 7100 14500
2026-04-11 06:45 9.54 2170 30500 (1994) 58 (1981) 3200 96 204 366 459 1470 3800 4740 7100 14500
2026-04-11 05:45 9.70 2280 30500 (1994) 58 (1981) 3200 96 204 366 459 1470 3800 4740 7100 14500
2026-04-11 04:45 9.83 2380 30500 (1994) 58 (1981) 3200 96 204 366 459 1470 3800 4740 7100 14500
2026-04-11 03:45 9.91 2430 30500 (1994) 58 (1981) 3200 96 204 366 459 1470 3800 4740 7100 14500
2026-04-11 02:45 9.84 2380 30500 (1994) 58 (1981) 3200 96 204 366 459 1470 3800 4740 7100 14500
2026-04-11 01:45 9.53 2160 30500 (1994) 58 (1981) 3200 96 204 366 459 1470 3800 4740 7100 14500
2026-04-11 00:45 8.91 1740 30500 (1994) 58 (1981) 3200 96 204 366 459 1470 3800 4740 7100 14500
2026-04-10 23:45 8.05 1200 30500 (1994) 58 (1981) 3200 96 204 366 459 1470 3800 4740 7100 14500
2026-04-10 22:45 7.67 981 16100 (2008) 55 (1981) 2280 93 178 414 542 1330 3270 3900 5680 7400
2026-04-10 21:45 7.59 938 16100 (2008) 55 (1981) 2280 93 178 414 542 1330 3270 3900 5680 7400
2026-04-10 20:45 7.48 881 16100 (2008) 55 (1981) 2280 93 178 414 542 1330 3270 3900 5680 7400
2026-04-10 19:45 7.36 820 16100 (2008) 55 (1981) 2280 93 178 414 542 1330 3270 3900 5680 7400
2026-04-10 18:45 7.27 776 16100 (2008) 55 (1981) 2280 93 178 414 542 1330 3270 3900 5680 7400
2026-04-10 17:45 7.17 728 16100 (2008) 55 (1981) 2280 93 178 414 542 1330 3270 3900 5680 7400
2026-04-10 16:45 7.08 686 16100 (2008) 55 (1981) 2280 93 178 414 542 1330 3270 3900 5680 7400
2026-04-10 15:45 6.99 645 16100 (2008) 55 (1981) 2280 93 178 414 542 1330 3270 3900 5680 7400
2026-04-10 14:45 6.90 606 16100 (2008) 55 (1981) 2280 93 178 414 542 1330 3270 3900 5680 7400
2026-04-10 13:45 6.79 559 16100 (2008) 55 (1981) 2280 93 178 414 542 1330 3270 3900 5680 7400
2026-04-10 12:45 6.70 521 16100 (2008) 55 (1981) 2280 93 178 414 542 1330 3270 3900 5680 7400
2026-04-10 11:45 6.64 497 16100 (2008) 55 (1981) 2280 93 178 414 542 1330 3270 3900 5680 7400
2026-04-10 10:45 6.60 481 16100 (2008) 55 (1981) 2280 93 178 414 542 1330 3270 3900 5680 7400
2026-04-10 09:45 6.56 466 16100 (2008) 55 (1981) 2280 93 178 414 542 1330 3270 3900 5680 7400
2026-04-10 08:45 6.52 450 16100 (2008) 55 (1981) 2280 93 178 414 542 1330 3270 3900 5680 7400
2026-04-10 07:45 6.49 439 16100 (2008) 55 (1981) 2280 93 178 414 542 1330 3270 3900 5680 7400
2026-04-10 06:45 6.47 431 16100 (2008) 55 (1981) 2280 93 178 414 542 1330 3270 3900 5680 7400
2026-04-10 05:45 6.46 427 16100 (2008) 55 (1981) 2280 93 178 414 542 1330 3270 3900 5680 7400
2026-04-10 04:45 6.47 431 16100 (2008) 55 (1981) 2280 93 178 414 542 1330 3270 3900 5680 7400
2026-04-10 03:45 6.48 435 16100 (2008) 55 (1981) 2280 93 178 414 542 1330 3270 3900 5680 7400
2026-04-10 02:45 6.49 439 16100 (2008) 55 (1981) 2280 93 178 414 542 1330 3270 3900 5680 7400
2026-04-10 01:45 6.49 439 16100 (2008) 55 (1981) 2280 93 178 414 542 1330 3270 3900 5680 7400
2026-04-10 00:45 6.50 443 16100 (2008) 55 (1981) 2280 93 178 414 542 1330 3270 3900 5680 7400
2026-04-09 23:45 6.51 446 16100 (2008) 55 (1981) 2280 93 178 414 542 1330 3270 3900 5680 7400

A total of 731 rows are displayed for years 1975 through 2025.